<- Previous Day | Today | Next Day ->

All Data for 19 January 2020

 

Time A - D Temp A - D Dew Point A - D Humidity A - D Pressure A - D Wind A - D Wind Dir Gust A - D Rain Rate A - D Rain Total
00:00 1.4 -2.2 77 1037.6 3.1 N 4.5 0.0 0.0
00:01 1.4 -2.2 77 1037.5 3.1 N 4.5 0.0 0.0
00:02 1.4 -2.2 77 1037.6 3.1 N 4.5 0.0 0.0
00:03 1.4 -2.2 77 1037.7 3.1 N 4.5 0.0 0.0
00:04 1.4 -2.2 77 1037.8 3.1 N 4.5 0.0 0.0
00:05 1.3 -2.3 77 1037.7 3.1 ENE 4.5 0.0 0.0
00:06 1.4 -2.2 77 1037.7 3.8 NE 4.5 0.0 0.0
00:08 1.3 -2.3 77 1037.7 3.8 N 3.8 0.0 0.0
00:09 1.3 -2.3 77 1037.7 3.8 N 3.8 0.0 0.0
00:10 1.3 -2.3 77 1037.9 3.1 NW 3.8 0.0 0.0
00:11 1.3 -2.3 77 1037.8 3.8 N 3.8 0.0 0.0
00:12 1.3 -2.3 77 1037.8 3.8 NE 3.8 0.0 0.0
00:13 1.3 -2.3 77 1037.8 3.1 NE 3.8 0.0 0.0
00:14 1.3 -2.3 77 1037.8 3.8 N 3.8 0.0 0.0
00:15 1.3 -2.3 77 1037.9 3.1 N 3.8 0.0 0.0
00:16 1.3 -2.3 77 1037.8 4.5 N 4.5 0.0 0.0
00:17 1.3 -2.3 77 1037.8 3.1 N 4.5 0.0 0.0
00:18 1.3 -2.3 77 1038.0 4.5 N 4.5 0.0 0.0
00:19 1.3 -2.3 77 1037.9 3.1 NE 4.5 0.0 0.0
00:20 1.3 -2.3 77 1037.9 5.4 NE 5.4 0.0 0.0
00:21 1.3 -2.3 77 1037.8 3.8 NE 5.4 0.0 0.0
00:23 1.3 -2.3 77 1037.9 4.5 NNE 5.4 0.0 0.0
00:24 1.3 -2.3 77 1038.1 3.8 N 5.4 0.0 0.0
00:25 1.3 -2.3 77 1038.0 4.5 N 5.4 0.0 0.0
00:26 1.3 -2.3 77 1038.1 3.8 N 5.4 0.0 0.0
00:27 1.3 -2.3 77 1038.1 3.1 N 5.4 0.0 0.0
00:28 1.3 -2.3 77 1038.1 3.1 NW 5.4 0.0 0.0
00:29 1.3 -2.3 77 1038.1 3.8 N 5.4 0.0 0.0
00:30 1.3 -2.3 77 1038.2 4.5 NE 5.4 0.0 0.0
00:31 1.3 -2.3 77 1038.2 5.4 NE 5.4 0.0 0.0
00:32 1.3 -2.3 77 1038.2 4.5 NE 5.4 0.0 0.0
00:33 1.3 -2.3 77 1038.3 4.5 NE 5.4 0.0 0.0
00:34 1.3 -2.3 77 1038.2 3.8 N 5.4 0.0 0.0
00:35 1.3 -2.3 77 1038.4 3.8 N 5.4 0.0 0.0
00:37 1.3 -2.3 77 1038.3 2.2 N 5.4 0.0 0.0
00:38 1.3 -2.3 77 1038.2 3.1 N 5.4 0.0 0.0
00:39 1.3 -2.3 77 1038.1 3.1 N 5.4 0.0 0.0
00:40 1.3 -2.3 77 1038.2 3.1 NE 5.4 0.0 0.0
00:41 1.3 -2.3 77 1038.3 3.1 NE 5.4 0.0 0.0
00:42 1.3 -2.3 77 1038.2 3.1 N 4.5 0.0 0.0
00:43 1.3 -2.3 77 1038.4 3.1 N 4.5 0.0 0.0
00:44 1.3 -2.3 77 1038.4 4.5 NE 4.5 0.0 0.0
00:45 1.3 -2.3 77 1038.2 3.8 NE 4.5 0.0 0.0
00:46 1.3 -2.3 77 1038.3 3.8 NE 4.5 0.0 0.0
00:47 1.3 -2.3 77 1038.4 4.5 N 4.5 0.0 0.0
00:48 1.3 -2.3 77 1038.4 4.5 NE 4.5 0.0 0.0
00:49 1.3 -2.3 77 1038.4 3.8 N 4.5 0.0 0.0
00:51 1.3 -2.1 78 1038.4 2.2 N 4.5 0.0 0.0
00:52 1.3 -2.1 78 1038.3 2.2 NE 4.5 0.0 0.0
00:53 1.3 -2.1 78 1038.4 2.2 NE 4.5 0.0 0.0
00:54 1.3 -2.1 78 1038.4 3.1 NNE 4.5 0.0 0.0
00:55 1.3 -2.1 78 1038.5 3.1 NE 4.5 0.0 0.0
00:56 1.3 -2.1 78 1038.4 3.8 NE 4.5 0.0 0.0
00:57 1.3 -2.1 78 1038.6 3.8 NE 4.5 0.0 0.0
00:58 1.3 -2.1 78 1038.5 3.8 N 4.5 0.0 0.0
00:59 1.3 -2.1 78 1038.6 4.5 N 4.5 0.0 0.0
01:00 1.3 -2.1 78 1038.5 3.8 N 4.5 0.0 0.0
01:01 1.3 -2.1 78 1038.6 3.8 N 4.5 0.0 0.0
01:02 1.3 -2.1 78 1038.6 3.8 N 4.5 0.0 0.0
01:03 1.3 -2.1 78 1038.6 3.8 N 4.5 0.0 0.0
01:05 1.3 -2.1 78 1038.6 3.1 N 4.5 0.0 0.0
01:06 1.3 -2.1 78 1038.6 4.5 NE 4.5 0.0 0.0
01:07 1.3 -2.1 78 1038.6 3.8 NE 4.5 0.0 0.0
01:08 1.4 -2.0 78 1038.7 3.8 N 4.5 0.0 0.0
01:09 1.4 -2.0 78 1038.6 6.0 NE 6.0 0.0 0.0
01:10 1.4 -2.0 78 1038.6 3.8 N 6.0 0.0 0.0
01:11 1.4 -2.0 78 1038.6 3.8 NW 6.0 0.0 0.0
01:12 1.4 -2.0 78 1038.6 3.8 NE 6.0 0.0 0.0
01:13 1.5 -1.9 78 1038.6 4.5 NE 6.0 0.0 0.0
01:14 1.5 -1.9 78 1038.6 4.5 WNW 6.9 0.0 0.0
01:15 1.5 -1.9 78 1038.7 3.8 N 6.9 0.0 0.0
01:16 1.6 -1.8 78 1038.7 3.8 NW 6.9 0.0 0.0
01:17 1.6 -1.8 78 1038.7 3.1 NE 6.9 0.0 0.0
01:18 1.6 -1.8 78 1038.6 3.1 N 6.9 0.0 0.0
01:20 1.6 -1.6 79 1038.7 3.1 NE 6.9 0.0 0.0
01:21 1.6 -1.6 79 1038.7 3.1 NE 6.9 0.0 0.0
01:22 1.7 -1.7 78 1038.7 3.1 E 6.9 0.0 0.0
01:23 1.7 -1.7 78 1038.7 3.8 NE 6.9 0.0 0.0
01:24 1.7 -1.7 78 1038.7 3.8 N 4.5 0.0 0.0
01:25 1.7 -1.7 78 1038.7 3.8 ENE 3.8 0.0 0.0
01:26 1.7 -1.7 78 1038.7 3.8 NE 3.8 0.0 0.0
01:27 1.7 -1.7 78 1038.7 3.8 NE 3.8 0.0 0.0
01:28 1.7 -1.7 78 1038.7 3.8 NE 3.8 0.0 0.0
01:29 1.7 -1.7 78 1038.7 3.8 N 3.8 0.0 0.0
01:30 1.7 -1.5 79 1038.7 3.8 NE 3.8 0.0 0.0
01:31 1.7 -1.5 79 1038.7 3.8 NE 3.8 0.0 0.0
01:32 1.8 -1.4 79 1038.7 3.1 N 3.8 0.0 0.0
01:34 1.8 -1.6 78 1038.6 2.2 N 3.8 0.0 0.0
01:35 1.8 -1.6 78 1038.6 3.1 N 3.8 0.0 0.0
01:36 1.8 -1.6 78 1038.7 3.1 N 3.8 0.0 0.0
01:37 1.8 -1.4 79 1038.5 3.1 N 3.8 0.0 0.0
01:38 1.8 -1.4 79 1038.4 3.1 N 3.8 0.0 0.0
01:39 1.8 -1.4 79 1038.5 3.1 N 3.8 0.0 0.0
01:40 1.8 -1.4 79 1038.6 3.1 NE 3.8 0.0 0.0
01:41 1.8 -1.4 79 1038.5 3.1 N 3.8 0.0 0.0
01:42 1.8 -1.4 79 1038.6 3.1 WNW 3.8 0.0 0.0
01:43 1.8 -1.6 78 1038.5 3.1 NW 3.8 0.0 0.0
01:44 1.8 -1.4 79 1038.5 2.2 N 3.8 0.0 0.0
01:45 1.8 -1.6 78 1038.6 2.2 NE 3.8 0.0 0.0
01:46 1.8 -1.4 79 1038.6 2.2 N 3.8 0.0 0.0
01:48 1.7 -1.7 78 1038.3 4.5 N 4.5 0.0 0.0
01:49 1.7 -1.7 78 1038.3 4.5 N 4.5 0.0 0.0
01:50 1.7 -1.7 78 1038.5 5.4 N 5.4 0.0 0.0
01:51 1.7 -1.7 78 1038.3 3.8 NE 5.4 0.0 0.0
01:52 1.7 -1.7 78 1038.4 4.5 WSW 5.4 0.0 0.0
01:53 1.7 -1.7 78 1038.4 5.4 NE 5.4 0.0 0.0
01:54 1.7 -1.7 78 1038.2 3.8 WNW 5.4 0.0 0.0
01:55 1.7 -1.7 78 1038.3 3.1 N 5.4 0.0 0.0
01:56 1.7 -1.7 78 1038.3 3.8 NE 5.4 0.0 0.0
01:57 1.7 -1.7 78 1038.3 6.0 NE 6.0 0.0 0.0
01:58 1.8 -1.6 78 1038.3 4.5 N 6.0 0.0 0.0
01:59 1.8 -1.6 78 1038.4 4.5 N 6.0 0.0 0.0
02:00 1.8 -1.6 78 1038.4 3.8 E 6.0 0.0 0.0
02:02 1.8 -1.6 78 1038.3 3.8 E 6.0 0.0 0.0
02:03 1.8 -1.6 78 1038.2 3.8 E 6.0 0.0 0.0
02:04 1.8 -1.6 78 1038.3 3.8 E 6.0 0.0 0.0
02:05 1.8 -1.6 78 1038.4 3.8 E 6.0 0.0 0.0
02:06 1.9 -1.3 79 1038.4 3.8 N 6.0 0.0 0.0
02:07 1.9 -1.3 79 1038.4 3.1 NE 6.0 0.0 0.0
02:08 1.9 -1.3 79 1038.4 3.8 NE 4.5 0.0 0.0
02:09 1.9 -1.3 79 1038.5 3.8 NE 4.5 0.0 0.0
02:10 1.9 -1.3 79 1038.5 3.8 NE 3.8 0.0 0.0
02:11 1.9 -1.3 79 1038.4 3.8 NE 3.8 0.0 0.0
02:12 1.8 -1.4 79 1038.6 3.1 NE 3.8 0.0 0.0
02:13 1.8 -1.6 78 1038.6 3.1 NE 3.8 0.0 0.0
02:14 1.8 -1.6 78 1038.7 3.8 N 3.8 0.0 0.0
02:15 1.8 -1.6 78 1038.6 3.1 NE 3.8 0.0 0.0
02:17 1.8 -1.6 78 1038.7 3.1 NE 3.8 0.0 0.0
02:18 1.7 -1.7 78 1038.7 3.1 NE 3.8 0.0 0.0
02:19 1.7 -1.7 78 1038.7 2.2 NE 3.8 0.0 0.0
02:20 1.7 -1.7 78 1038.7 3.1 NE 3.8 0.0 0.0
02:21 1.7 -1.7 78 1038.6 1.6 NE 3.8 0.0 0.0
02:22 1.6 -1.8 78 1038.7 1.6 NE 3.8 0.0 0.0
02:23 1.6 -1.8 78 1038.7 1.6 NE 3.8 0.0 0.0
02:24 1.6 -1.8 78 1038.7 2.2 N 3.8 0.0 0.0
02:25 1.5 -1.9 78 1038.7 1.6 NE 3.8 0.0 0.0
02:26 1.5 -1.9 78 1038.7 3.1 N 3.1 0.0 0.0
02:27 1.5 -1.9 78 1038.7 3.1 N 3.1 0.0 0.0
02:28 1.5 -1.9 78 1038.7 2.2 N 3.1 0.0 0.0
02:29 1.4 -2.0 78 1038.6 3.1 NE 3.1 0.0 0.0
02:30 1.4 -2.0 78 1038.6 3.1 N 3.1 0.0 0.0
02:32 1.4 -2.0 78 1038.7 2.2 N 3.8 0.0 0.0
02:33 1.4 -2.0 78 1038.7 2.2 N 3.8 0.0 0.0
02:34 1.4 -2.0 78 1038.8 2.2 NE 3.8 0.0 0.0
02:35 1.4 -2.0 78 1038.6 2.2 N 3.8 0.0 0.0
02:36 1.3 -2.1 78 1038.7 3.1 N 3.8 0.0 0.0
02:37 1.3 -2.1 78 1038.8 3.1 N 3.8 0.0 0.0
02:38 1.3 -2.1 78 1038.8 3.1 NE 3.8 0.0 0.0
02:39 1.3 -2.1 78 1038.9 2.2 N 3.8 0.0 0.0
02:40 1.2 -2.2 78 1038.9 3.1 N 3.8 0.0 0.0
02:41 1.2 -2.2 78 1038.8 2.2 NW 3.8 0.0 0.0
02:42 1.2 -2.2 78 1038.8 2.2 N 3.1 0.0 0.0
02:43 1.2 -2.2 78 1038.7 2.2 N 3.1 0.0 0.0
02:44 1.2 -2.2 78 1038.7 3.1 N 3.1 0.0 0.0
02:46 1.1 -2.3 78 1038.9 3.1 N 4.5 0.0 0.0
02:47 1.1 -2.3 78 1039.0 2.2 N 4.5 0.0 0.0
02:48 1.1 -2.3 78 1039.0 2.2 N 4.5 0.0 0.0
02:49 1.1 -2.3 78 1039.0 3.1 NW 4.5 0.0 0.0
02:50 1.0 -2.4 78 1038.8 3.1 NE 4.5 0.0 0.0
02:51 1.0 -2.4 78 1039.1 3.1 N 4.5 0.0 0.0
02:52 1.0 -2.4 78 1039.1 3.1 N 4.5 0.0 0.0
02:53 1.0 -2.4 78 1039.2 3.8 N 4.5 0.0 0.0
02:54 1.0 -2.4 78 1039.1 3.1 NE 4.5 0.0 0.0
02:55 1.0 -2.4 78 1039.3 3.1 NE 4.5 0.0 0.0
02:56 1.0 -2.4 78 1039.2 3.1 NW 3.8 0.0 0.0
02:57 1.0 -2.4 78 1039.2 2.2 NE 3.8 0.0 0.0
02:59 1.0 -2.4 78 1039.1 3.1 NE 3.8 0.0 0.0
03:00 1.0 -2.4 78 1039.2 2.2 NE 3.8 0.0 0.0
03:01 1.0 -2.4 78 1039.2 2.2 NE 3.8 0.0 0.0
03:02 1.0 -2.4 78 1039.4 2.2 NE 3.8 0.0 0.0
03:03 1.0 -2.4 78 1039.2 2.2 NE 3.1 0.0 0.0
03:04 1.0 -2.4 78 1039.2 2.2 NE 3.1 0.0 0.0
03:05 1.0 -2.4 78 1039.3 2.2 NE 3.1 0.0 0.0
03:06 1.0 -2.4 78 1039.5 3.1 N 3.8 0.0 0.0
03:07 1.0 -2.2 79 1039.4 3.1 NE 3.8 0.0 0.0
03:08 1.0 -2.4 78 1039.2 3.1 N 3.8 0.0 0.0
03:09 1.0 -2.4 78 1039.3 2.2 NE 3.8 0.0 0.0
03:10 1.0 -2.2 79 1039.3 3.1 N 3.8 0.0 0.0
03:11 1.0 -2.4 78 1039.4 3.1 N 3.8 0.0 0.0
03:12 1.0 -2.2 79 1039.4 3.1 NNE 3.8 0.0 0.0
03:13 0.9 -2.3 79 1039.4 3.1 NE 3.8 0.0 0.0
03:14 0.9 -2.3 79 1039.4 3.1 N 3.8 0.0 0.0
03:16 0.9 -2.3 79 1039.6 3.8 N 3.8 0.0 0.0
03:17 0.9 -2.3 79 1039.6 3.8 N 3.8 0.0 0.0
03:18 0.9 -2.3 79 1039.5 3.1 N 3.8 0.0 0.0
03:19 1.0 -2.2 79 1039.6 3.8 N 3.8 0.0 0.0
03:20 1.0 -2.2 79 1039.4 3.1 NE 3.8 0.0 0.0
03:21 1.0 -2.2 79 1039.6 3.8 NE 3.8 0.0 0.0
03:22 1.0 -2.2 79 1039.5 3.8 N 3.8 0.0 0.0
03:23 0.9 -2.3 79 1039.5 2.2 N 3.8 0.0 0.0
03:24 1.0 -2.2 79 1039.7 3.8 N 3.8 0.0 0.0
03:25 0.9 -2.3 79 1039.6 3.8 N 3.8 0.0 0.0
03:26 1.0 -2.2 79 1039.6 3.8 NE 3.8 0.0 0.0
03:27 0.9 -2.3 79 1039.7 3.8 NE 3.8 0.0 0.0
03:30 0.9 -2.3 79 1039.8 3.1 NE 3.8 0.0 0.0
03:31 0.9 -2.3 79 1039.9 3.1 N 3.8 0.0 0.0
03:32 0.9 -2.3 79 1039.9 3.1 N 3.8 0.0 0.0
03:33 0.9 -2.3 79 1039.8 2.2 N 3.8 0.0 0.0
03:34 0.9 -2.3 79 1039.9 3.1 NW 3.8 0.0 0.0
03:35 0.9 -2.3 79 1039.9 3.1 NE 3.8 0.0 0.0
03:36 0.9 -2.3 79 1039.9 3.1 N 3.8 0.0 0.0
03:37 0.9 -2.3 79 1039.8 2.2 N 3.8 0.0 0.0
03:38 0.9 -2.3 79 1039.9 2.2 N 3.1 0.0 0.0
03:39 0.9 -2.3 79 1040.0 1.6 NE 3.1 0.0 0.0
03:40 0.9 -2.3 79 1039.9 2.2 N 3.1 0.0 0.0
03:41 0.9 -2.3 79 1040.0 2.2 N 3.1 0.0 0.0
03:42 0.9 -2.3 79 1039.8 1.6 NE 3.1 0.0 0.0
03:44 0.9 -2.3 79 1039.9 1.6 NW 3.1 0.0 0.0
03:45 0.9 -2.3 79 1039.9 1.6 NW 3.1 0.0 0.0
03:46 0.9 -2.3 79 1040.0 1.6 N 3.1 0.0 0.0
03:47 0.9 -2.3 79 1039.9 1.6 NW 3.1 0.0 0.0
03:48 0.9 -2.3 79 1040.0 1.6 NW 2.2 0.0 0.0
03:49 0.9 -2.3 79 1040.1 1.6 NW 2.2 0.0 0.0
03:50 0.8 -2.4 79 1039.9 2.2 N 2.2 0.0 0.0
03:51 0.8 -2.4 79 1039.9 2.2 N 2.2 0.0 0.0
03:52 0.8 -2.4 79 1040.0 1.6 N 2.2 0.0 0.0
03:53 0.8 -2.4 79 1040.0 2.2 NNE 2.2 0.0 0.0
03:54 0.8 -2.4 79 1040.0 1.6 NNE 2.2 0.0 0.0
03:55 0.8 -2.4 79 1039.9 2.2 NW 2.2 0.0 0.0
03:56 0.8 -2.4 79 1039.9 3.1 N 3.1 0.0 0.0
03:58 0.8 -2.4 79 1040.1 2.2 N 3.1 0.0 0.0
03:59 0.8 -2.4 79 1040.0 3.1 NE 3.1 0.0 0.0
04:00 0.7 -2.5 79 1039.9 2.2 N 3.1 0.0 0.0
04:01 0.7 -2.5 79 1040.1 2.2 N 3.1 0.0 0.0
04:02 0.7 -2.5 79 1040.1 2.2 N 3.1 0.0 0.0
04:03 0.7 -2.5 79 1040.1 2.2 N 3.1 0.0 0.0
04:04 0.7 -2.5 79 1040.0 2.2 N 3.1 0.0 0.0
04:05 0.7 -2.5 79 1040.2 2.2 N 3.1 0.0 0.0
04:06 0.7 -2.5 79 1040.1 2.2 NE 3.1 0.0 0.0
04:07 0.7 -2.5 79 1040.0 2.2 NW 3.1 0.0 0.0
04:08 0.7 -2.5 79 1040.1 2.2 N 3.1 0.0 0.0
04:09 0.7 -2.5 79 1040.0 2.2 N 3.1 0.0 0.0
04:10 0.7 -2.5 79 1040.0 3.1 NE 3.1 0.0 0.0
04:12 0.8 -2.4 79 1040.1 1.6 N 3.1 0.0 0.0
04:13 0.8 -2.4 79 1040.2 2.2 N 3.1 0.0 0.0
04:14 0.8 -2.4 79 1040.0 2.2 NW 3.1 0.0 0.0
04:15 0.8 -2.4 79 1040.0 3.1 N 3.1 0.0 0.0
04:16 0.8 -2.4 79 1040.1 2.2 N 3.1 0.0 0.0
04:17 0.8 -2.4 79 1040.0 2.2 NE 3.1 0.0 0.0
04:18 0.8 -2.4 79 1040.1 2.2 N 3.1 0.0 0.0
04:19 0.8 -2.4 79 1040.2 2.2 N 3.1 0.0 0.0
04:20 0.8 -2.4 79 1040.2 2.2 N 3.1 0.0 0.0
04:21 0.8 -2.4 79 1040.1 2.2 N 3.1 0.0 0.0
04:22 0.8 -2.4 79 1040.4 2.2 N 3.1 0.0 0.0
04:23 0.8 -2.2 80 1040.2 1.6 N 3.1 0.0 0.0
04:24 0.8 -2.2 80 1040.2 2.2 N 3.1 0.0 0.0
04:25 0.8 -2.2 80 1040.3 1.6 N 2.2 0.0 0.0
04:27 0.8 -2.4 79 1040.3 1.6 NW 2.2 0.0 0.0
04:28 0.8 -2.2 80 1040.2 1.6 NW 2.2 0.0 0.0
04:29 0.8 -2.2 80 1040.3 1.6 N 2.2 0.0 0.0
04:30 0.8 -2.2 80 1040.4 1.6 N 2.2 0.0 0.0
04:31 0.8 -2.2 80 1040.3 1.6 N 2.2 0.0 0.0
04:32 0.8 -2.2 80 1040.3 2.2 N 2.2 0.0 0.0
04:33 0.8 -2.2 80 1040.5 1.6 N 2.2 0.0 0.0
04:34 0.8 -2.2 80 1040.3 2.2 N 2.2 0.0 0.0
04:35 0.8 -2.2 80 1040.5 2.2 NE 2.2 0.0 0.0
04:36 0.8 -2.2 80 1040.3 3.1 NE 3.1 0.0 0.0
04:37 0.8 -2.2 80 1040.4 2.2 NW 3.1 0.0 0.0
04:38 0.8 -2.2 80 1040.5 3.1 NW 3.1 0.0 0.0
04:39 0.9 -2.2 80 1040.4 1.6 NE 3.1 0.0 0.0
04:41 0.9 -2.2 80 1040.5 1.6 N 3.1 0.0 0.0
04:42 0.9 -2.2 80 1040.5 2.2 N 3.1 0.0 0.0
04:43 0.9 -2.2 80 1040.6 2.2 NE 3.1 0.0 0.0
04:44 0.8 -2.2 80 1040.5 2.2 NE 3.1 0.0 0.0
04:45 0.8 -2.2 80 1040.4 2.2 N 3.1 0.0 0.0
04:46 0.8 -2.2 80 1040.4 2.2 NE 3.1 0.0 0.0
04:47 0.9 -2.2 80 1040.6 2.2 NE 3.1 0.0 0.0
04:48 0.8 -2.2 80 1040.6 2.2 N 3.1 0.0 0.0
04:49 0.8 -2.2 80 1040.6 2.2 N 2.2 0.0 0.0
04:50 0.8 -2.2 80 1040.6 3.1 N 3.1 0.0 0.0
04:51 0.8 -2.2 80 1040.6 2.2 N 3.1 0.0 0.0
04:52 0.8 -2.2 80 1040.5 2.2 N 3.1 0.0 0.0
04:53 0.8 -2.2 80 1040.6 2.2 NE 3.1 0.0 0.0
04:55 0.8 -2.2 80 1040.7 2.2 NE 3.1 0.0 0.0
04:56 0.8 -2.2 80 1040.7 2.2 N 3.1 0.0 0.0
04:57 0.8 -2.2 80 1040.7 2.2 N 3.1 0.0 0.0
04:58 0.8 -2.2 80 1040.8 3.1 N 3.1 0.0 0.0
04:59 0.8 -2.2 80 1040.7 3.1 NE 3.1 0.0 0.0
05:00 0.8 -2.2 80 1040.9 2.2 N 3.1 0.0 0.0
05:01 0.8 -2.2 80 1040.6 2.2 N 3.1 0.0 0.0
05:02 0.8 -2.2 80 1040.8 2.2 N 3.1 0.0 0.0
05:03 0.8 -2.2 80 1040.7 2.2 N 3.1 0.0 0.0
05:04 0.8 -2.2 80 1040.8 2.2 N 3.1 0.0 0.0
05:05 0.8 -2.2 80 1040.9 2.2 N 3.1 0.0 0.0
05:06 0.8 -2.2 80 1040.9 2.2 N 3.1 0.0 0.0
05:07 0.8 -2.2 80 1040.9 3.1 NE 3.1 0.0 0.0
05:09 0.8 -2.2 80 1040.8 2.2 NE 3.1 0.0 0.0
05:10 0.8 -2.2 80 1041.0 2.2 N 3.1 0.0 0.0
05:11 0.8 -2.2 80 1041.0 2.2 NE 3.1 0.0 0.0
05:12 0.8 -2.2 80 1041.1 2.2 NE 3.1 0.0 0.0
05:13 0.8 -2.2 80 1041.1 2.2 NE 3.1 0.0 0.0
05:14 0.8 -2.2 80 1041.0 2.2 N 3.1 0.0 0.0
05:15 0.8 -2.2 80 1041.2 1.6 N 3.1 0.0 0.0
05:16 0.8 -2.2 80 1041.1 1.6 N 3.1 0.0 0.0
05:17 0.8 -2.2 80 1041.0 1.6 N 3.1 0.0 0.0
05:18 0.8 -2.2 80 1041.1 1.6 N 3.1 0.0 0.0
05:19 0.8 -2.1 81 1041.1 1.6 N 2.2 0.0 0.0
05:20 0.8 -2.1 81 1041.1 1.6 N 2.2 0.0 0.0
05:21 0.8 -2.1 81 1041.1 1.6 N 2.2 0.0 0.0
05:22 0.8 -2.1 81 1041.1 1.6 N 2.2 0.0 0.0
05:24 0.8 -2.1 81 1041.2 2.2 N 2.2 0.0 0.0
05:25 0.8 -2.1 81 1041.3 2.2 N 2.2 0.0 0.0
05:26 0.8 -2.1 81 1041.1 2.2 N 2.2 0.0 0.0
05:27 0.8 -2.1 81 1041.1 3.1 NE 3.1 0.0 0.0
05:28 0.8 -2.1 81 1041.3 3.1 N 3.1 0.0 0.0
05:29 0.8 -2.1 81 1041.3 2.2 NNW 3.1 0.0 0.0
05:30 0.8 -2.1 81 1041.4 3.1 N 3.1 0.0 0.0
05:31 0.8 -2.1 81 1041.3 2.2 N 3.1 0.0 0.0
05:32 0.8 -2.1 81 1041.2 3.1 NE 3.1 0.0 0.0
05:33 0.8 -2.1 81 1041.2 3.1 NE 3.1 0.0 0.0
05:34 0.8 -2.1 81 1041.2 2.2 NE 3.1 0.0 0.0
05:35 0.8 -2.1 81 1041.2 2.2 N 3.1 0.0 0.0
05:36 0.8 -2.1 81 1041.3 2.2 N 3.1 0.0 0.0
05:38 0.8 -2.1 81 1041.3 2.2 N 3.1 0.0 0.0
05:39 0.8 -2.1 81 1041.3 3.1 NE 3.1 0.0 0.0
05:40 0.8 -2.1 81 1041.4 1.6 N 3.1 0.0 0.0
05:41 0.8 -2.1 81 1041.2 2.2 N 3.1 0.0 0.0
05:42 0.8 -2.1 81 1041.4 2.2 N 3.1 0.0 0.0
05:43 0.8 -2.1 81 1041.3 2.2 N 3.1 0.0 0.0
05:44 0.8 -2.1 81 1041.3 1.6 N 3.1 0.0 0.0
05:45 0.8 -2.1 81 1041.3 1.6 N 3.1 0.0 0.0
05:46 0.8 -2.1 81 1041.4 0.7 NE 3.1 0.0 0.0
05:47 0.8 -2.1 81 1041.3 1.6 N 3.1 0.0 0.0
05:48 0.8 -2.1 81 1041.3 1.6 N 3.1 0.0 0.0
05:49 0.8 -2.1 81 1041.3 1.6 N 2.2 0.0 0.0
05:50 0.8 -2.1 81 1041.4 1.6 NE 2.2 0.0 0.0
05:53 0.8 -2.1 81 1041.4 1.6 N 2.2 0.0 0.0
05:54 0.8 -2.1 81 1041.3 1.6 N 2.2 0.0 0.0
05:55 0.8 -2.1 81 1041.3 2.2 N 2.2 0.0 0.0
05:56 0.8 -2.1 81 1041.3 2.2 NE 2.2 0.0 0.0
05:57 0.8 -2.1 81 1041.4 2.2 N 2.2 0.0 0.0
05:58 0.8 -2.1 81 1041.3 1.6 NW 2.2 0.0 0.0
05:59 0.8 -2.1 81 1041.3 2.2 NW 2.2 0.0 0.0
06:00 0.8 -2.1 81 1041.3 1.6 NW 2.2 0.0 0.0
06:01 0.8 -2.1 81 1041.3 1.6 NW 2.2 0.0 0.0
06:02 0.8 -2.1 81 1041.2 1.6 NW 2.2 0.0 0.0
06:03 0.8 -2.1 81 1041.2 1.6 NW 2.2 0.0 0.0
06:04 0.8 -2.1 81 1041.2 1.6 NW 2.2 0.0 0.0
06:05 0.8 -2.1 81 1041.2 1.6 NW 2.2 0.0 0.0
06:07 0.8 -2.1 81 1041.2 1.6 NW 2.2 0.0 0.0
06:08 0.8 -2.1 81 1041.3 1.6 NW 2.2 0.0 0.0
06:09 0.8 -2.1 81 1041.4 1.6 NW 2.2 0.0 0.0
06:10 0.8 -2.1 81 1041.6 0.7 N 1.6 0.0 0.0
06:11 0.8 -2.1 81 1041.6 0.7 N 1.6 0.0 0.0
06:12 0.8 -2.1 81 1041.4 1.6 NW 1.6 0.0 0.0
06:13 0.8 -2.1 81 1041.4 0.7 NW 1.6 0.0 0.0
06:14 0.8 -2.1 81 1041.4 0.7 NW 1.6 0.0 0.0
06:15 0.8 -2.1 81 1041.5 0.0 NW 1.6 0.0 0.0
06:16 0.6 -2.3 81 1041.4 1.6 NW 1.6 0.0 0.0
06:17 0.7 -2.2 81 1041.5 1.6 N 1.6 0.0 0.0
06:18 0.7 -2.2 81 1041.6 1.6 N 1.6 0.0 0.0
06:19 0.7 -2.2 81 1041.5 1.6 N 1.6 0.0 0.0
06:21 0.7 -2.2 81 1041.6 2.2 NW 2.2 0.0 0.0
06:22 0.7 -2.2 81 1041.6 1.6 NW 2.2 0.0 0.0
06:23 0.7 -2.2 81 1041.7 1.6 NW 2.2 0.0 0.0
06:24 0.7 -2.2 81 1041.6 1.6 N 2.2 0.0 0.0
06:25 0.7 -2.2 81 1041.7 1.6 N 2.2 0.0 0.0
06:26 0.7 -2.0 82 1041.7 1.6 N 2.2 0.0 0.0
06:27 0.7 -2.0 82 1041.7 2.2 N 2.2 0.0 0.0
06:28 0.7 -2.0 82 1041.8 1.6 N 2.2 0.0 0.0
06:29 0.7 -2.0 82 1041.7 1.6 N 2.2 0.0 0.0
06:30 0.7 -2.0 82 1041.7 1.6 N 2.2 0.0 0.0
06:31 0.7 -2.0 82 1041.7 2.2 N 2.2 0.0 0.0
06:32 0.7 -2.0 82 1041.8 0.7 NW 2.2 0.0 0.0
06:34 0.7 -2.0 82 1041.7 2.2 N 2.2 0.0 0.0
06:35 0.7 -2.0 82 1041.8 2.2 N 2.2 0.0 0.0
06:36 0.7 -2.0 82 1041.7 1.6 N 2.2 0.0 0.0
06:37 0.8 -1.9 82 1041.7 2.2 NE 2.2 0.0 0.0
06:38 0.8 -1.9 82 1041.7 2.2 N 3.1 0.0 0.0
06:39 0.8 -1.9 82 1041.8 1.6 N 3.1 0.0 0.0
06:40 0.8 -1.9 82 1042.0 2.2 NW 3.1 0.0 0.0
06:41 0.8 -1.9 82 1041.9 3.1 NE 3.1 0.0 0.0
06:42 0.8 -1.9 82 1041.8 2.2 N 3.1 0.0 0.0
06:43 0.8 -1.9 82 1041.9 2.2 N 3.1 0.0 0.0
06:44 0.8 -1.9 82 1041.8 1.6 NW 3.1 0.0 0.0
06:45 0.9 -1.8 82 1041.8 2.2 NW 3.1 0.0 0.0
06:46 0.9 -1.8 82 1041.8 1.6 N 3.1 0.0 0.0
06:47 0.9 -1.8 82 1041.7 1.6 NW 3.1 0.0 0.0
06:49 0.9 -1.8 82 1041.9 1.6 N 3.1 0.0 0.0
06:50 0.9 -1.8 82 1042.0 1.6 NW 3.1 0.0 0.0
06:51 0.9 -1.8 82 1041.9 2.2 NE 3.1 0.0 0.0
06:52 0.9 -1.8 82 1042.0 2.2 NW 2.2 0.0 0.0
06:53 0.9 -1.8 82 1041.9 1.6 NE 2.2 0.0 0.0
06:54 0.9 -1.8 82 1041.9 2.2 N 2.2 0.0 0.0
06:55 0.9 -1.8 82 1042.0 2.2 N 2.2 0.0 0.0
06:56 0.9 -1.8 82 1042.0 3.1 N 3.1 0.0 0.0
06:57 0.9 -1.8 82 1042.1 2.2 NE 3.1 0.0 0.0
06:58 0.9 -1.8 82 1042.0 1.6 NE 3.1 0.0 0.0
06:59 0.9 -1.8 82 1042.0 2.2 NE 3.1 0.0 0.0
07:00 0.9 -1.8 82 1042.2 2.2 NE 3.1 0.0 0.0
07:01 0.9 -1.8 82 1042.1 2.2 NE 3.1 0.0 0.0
07:03 0.9 -1.8 82 1042.2 2.2 NE 3.1 0.0 0.0
07:04 0.9 -1.8 82 1042.2 2.2 NE 3.1 0.0 0.0
07:05 0.9 -1.8 82 1042.1 2.2 NE 3.1 0.0 0.0
07:06 0.9 -1.7 83 1042.1 2.2 NE 3.1 0.0 0.0
07:07 0.9 -1.7 83 1042.1 2.2 NE 3.1 0.0 0.0
07:08 0.9 -1.7 83 1042.2 2.2 NW 3.1 0.0 0.0
07:09 0.8 -1.9 82 1042.2 2.2 NW 3.1 0.0 0.0
07:10 0.9 -1.7 83 1042.2 3.1 N 3.1 0.0 0.0
07:11 0.9 -1.7 83 1042.2 3.1 N 3.1 0.0 0.0
07:12 0.9 -1.7 83 1042.1 2.2 N 3.1 0.0 0.0
07:13 0.9 -1.7 83 1042.2 2.2 NE 3.1 0.0 0.0
07:14 0.9 -1.7 83 1042.2 2.2 NE 3.1 0.0 0.0
07:15 0.9 -1.7 83 1042.2 2.2 NE 3.1 0.0 0.0
07:16 0.9 -1.7 83 1042.3 2.2 NE 3.1 0.0 0.0
07:18 0.9 -1.7 83 1042.3 2.2 N 3.1 0.0 0.0
07:19 0.9 -1.7 83 1042.4 1.6 N 3.1 0.0 0.0
07:20 0.9 -1.7 83 1042.2 2.2 NW 3.1 0.0 0.0
07:21 0.9 -1.7 83 1042.2 1.6 N 3.1 0.0 0.0
07:22 0.9 -1.7 83 1042.3 2.2 N 2.2 0.0 0.0
07:23 0.9 -1.7 83 1042.3 1.6 N 2.2 0.0 0.0
07:24 0.9 -1.7 83 1042.3 2.2 NE 2.2 0.0 0.0
07:25 0.9 -1.7 83 1042.4 2.2 NE 2.2 0.0 0.0
07:26 0.9 -1.7 83 1042.6 2.2 NE 2.2 0.0 0.0
07:27 0.9 -1.7 83 1042.5 1.6 N 2.2 0.0 0.0
07:28 0.9 -1.7 83 1042.3 1.6 NE 2.2 0.0 0.0
07:29 0.9 -1.7 83 1042.4 2.2 NE 2.2 0.0 0.0
07:31 0.9 -1.7 83 1042.5 2.2 NE 2.2 0.0 0.0
07:32 1.0 -1.6 83 1042.5 2.2 NE 2.2 0.0 0.0
07:33 1.0 -1.6 83 1042.5 2.2 NE 2.2 0.0 0.0
07:34 1.0 -1.6 83 1042.4 3.1 N 3.1 0.0 0.0
07:35 1.0 -1.6 83 1042.6 2.2 N 3.1 0.0 0.0
07:36 1.0 -1.6 83 1042.5 2.2 NE 3.1 0.0 0.0
07:37 1.0 -1.6 83 1042.5 2.2 NW 3.1 0.0 0.0
07:38 1.0 -1.6 83 1042.7 2.2 N 3.1 0.0 0.0
07:39 1.0 -1.6 83 1042.7 2.2 N 3.1 0.0 0.0
07:40 1.0 -1.6 83 1042.7 2.2 NE 3.1 0.0 0.0
07:41 1.0 -1.6 83 1042.6 2.2 NW 3.1 0.0 0.0
07:42 1.0 -1.6 83 1042.7 2.2 N 3.1 0.0 0.0
07:43 1.0 -1.6 83 1042.7 3.1 N 3.1 0.0 0.0
07:44 1.0 -1.6 83 1042.8 2.2 NE 3.1 0.0 0.0
07:46 1.0 -1.6 83 1042.7 2.2 NW 3.1 0.0 0.0
07:47 1.1 -1.5 83 1042.7 2.2 NW 3.1 0.0 0.0
07:48 1.1 -1.5 83 1042.7 3.1 N 3.1 0.0 0.0
07:49 1.1 -1.5 83 1042.8 2.2 N 3.1 0.0 0.0
07:50 1.1 -1.5 83 1042.8 3.1 NW 3.1 0.0 0.0
07:51 1.1 -1.5 83 1042.8 2.2 NW 3.1 0.0 0.0
07:52 1.1 -1.5 83 1042.8 2.2 N 3.1 0.0 0.0
07:53 1.0 -1.6 83 1042.7 2.2 N 3.1 0.0 0.0
07:54 1.0 -1.6 83 1042.9 2.2 N 3.1 0.0 0.0
07:55 1.1 -1.5 83 1043.0 2.2 N 3.1 0.0 0.0
07:56 1.0 -1.6 83 1043.0 2.2 N 3.1 0.0 0.0
07:57 1.0 -1.6 83 1043.0 1.6 N 3.1 0.0 0.0
07:58 0.9 -1.7 83 1043.1 2.2 NE 3.1 0.0 0.0
08:00 0.9 -1.7 83 1043.1 2.2 NE 3.1 0.0 0.0
08:01 0.9 -1.7 83 1043.0 2.2 NE 2.2 0.0 0.0
08:02 0.9 -1.7 83 1043.1 2.2 NE 2.2 0.0 0.0
08:03 0.9 -1.7 83 1043.2 2.2 NE 2.2 0.0 0.0
08:04 0.9 -1.7 83 1043.2 2.2 NE 2.2 0.0 0.0
08:05 0.9 -1.7 83 1043.2 2.2 NE 2.2 0.0 0.0
08:06 1.0 -1.6 83 1043.2 2.2 NW 3.1 0.0 0.0
08:07 1.0 -1.4 84 1043.2 3.1 NNE 3.1 0.0 0.0
08:08 1.0 -1.4 84 1043.3 2.2 NE 3.1 0.0 0.0
08:09 1.0 -1.6 83 1043.3 2.2 NE 3.1 0.0 0.0
08:10 1.0 -1.4 84 1043.3 2.2 NE 3.1 0.0 0.0
08:11 1.0 -1.4 84 1043.4 1.6 N 3.1 0.0 0.0
08:12 1.0 -1.4 84 1043.2 2.2 NE 3.1 0.0 0.0
08:14 1.0 -1.4 84 1043.2 1.6 N 3.1 0.0 0.0
08:15 1.0 -1.4 84 1043.3 2.2 NE 3.1 0.0 0.0
08:16 1.0 -1.4 84 1043.3 2.2 N 3.1 0.0 0.0
08:17 1.0 -1.4 84 1043.6 2.2 NE 3.1 0.0 0.0
08:18 1.0 -1.4 84 1043.5 1.6 NE 2.2 0.0 0.0
08:19 1.1 -1.3 84 1043.4 1.6 NE 2.2 0.0 0.0
08:20 1.0 -1.4 84 1043.3 1.6 N 2.2 0.0 0.0
08:21 1.0 -1.4 84 1043.5 1.6 N 2.2 0.0 0.0
08:22 1.0 -1.4 84 1043.6 1.6 NW 2.2 0.0 0.0
08:23 1.0 -1.4 84 1043.4 1.6 N 2.2 0.0 0.0
08:24 1.0 -1.4 84 1043.5 0.0 N 2.2 0.0 0.0
08:25 1.0 -1.4 84 1043.6 0.0 N 2.2 0.0 0.0
08:26 1.0 -1.4 84 1043.4 0.0 N 2.2 0.0 0.0
08:27 1.0 -1.4 84 1043.5 0.7 NE 2.2 0.0 0.0
08:29 1.0 -1.4 84 1043.7 1.6 NE 1.6 0.0 0.0
08:30 0.9 -1.5 84 1043.6 1.6 NE 1.6 0.0 0.0
08:31 0.9 -1.5 84 1043.6 1.6 NE 1.6 0.0 0.0
08:32 0.9 -1.5 84 1043.5 1.6 NE 1.6 0.0 0.0
08:33 0.9 -1.5 84 1043.5 1.6 NE 1.6 0.0 0.0
08:34 0.9 -1.5 84 1043.6 2.2 NE 2.2 0.0 0.0
08:35 0.9 -1.5 84 1043.6 2.2 NE 2.2 0.0 0.0
08:36 0.7 -1.7 84 1043.7 1.6 NNE 2.2 0.0 0.0
08:37 0.7 -1.7 84 1043.6 1.6 N 2.2 0.0 0.0
08:38 0.8 -1.6 84 1043.7 1.6 N 2.2 0.0 0.0
08:39 0.8 -1.6 84 1043.7 1.6 N 2.2 0.0 0.0
08:40 0.8 -1.6 84 1043.7 2.2 N 2.2 0.0 0.0
08:41 0.8 -1.6 84 1043.8 2.2 N 2.2 0.0 0.0
08:43 0.8 -1.6 84 1043.7 2.2 N 2.2 0.0 0.0
08:44 0.9 -1.5 84 1043.7 2.2 N 2.2 0.0 0.0
08:45 0.9 -1.5 84 1043.7 2.2 N 2.2 0.0 0.0
08:46 0.8 -1.6 84 1043.8 2.2 NW 2.2 0.0 0.0
08:47 0.9 -1.5 84 1043.8 1.6 N 2.2 0.0 0.0
08:48 0.9 -1.5 84 1043.8 2.2 N 2.2 0.0 0.0
08:49 0.9 -1.5 84 1043.8 2.2 N 2.2 0.0 0.0
08:50 1.0 -1.4 84 1043.7 2.2 N 2.2 0.0 0.0
08:51 1.0 -1.4 84 1043.8 2.2 N 2.2 0.0 0.0
08:52 1.0 -1.4 84 1044.0 2.2 N 2.2 0.0 0.0
08:53 1.0 -1.4 84 1043.9 2.2 N 2.2 0.0 0.0
08:54 1.0 -1.4 84 1043.9 2.2 N 2.2 0.0 0.0
08:55 1.0 -1.4 84 1044.0 2.2 N 2.2 0.0 0.0
08:57 1.0 -1.4 84 1044.0 2.2 N 2.2 0.0 0.0
08:58 1.0 -1.4 84 1043.9 2.2 N 2.2 0.0 0.0
08:59 1.1 -1.3 84 1043.9 2.2 NE 2.2 0.0 0.0
09:00 1.1 -1.3 84 1044.0 2.2 NE 2.2 0.0 0.0
09:01 1.1 -1.3 84 1043.9 2.2 NE 2.2 0.0 0.0
09:02 1.1 -1.3 84 1044.0 2.2 NE 2.2 0.0 0.0
09:03 1.1 -1.3 84 1043.9 2.2 NE 2.2 0.0 0.0
09:04 1.1 -1.3 84 1043.9 2.2 NE 2.2 0.0 0.0
09:05 1.1 -1.3 84 1044.0 2.2 NE 2.2 0.0 0.0
09:06 1.2 -1.2 84 1044.0 3.1 NE 3.1 0.0 0.0
09:07 1.2 -1.2 84 1044.0 2.2 NE 3.1 0.0 0.0
09:08 1.2 -1.2 84 1043.8 3.1 NE 3.1 0.0 0.0
09:09 1.3 -1.1 84 1044.0 2.2 N 3.1 0.0 0.0
09:12 1.4 -1.0 84 1044.0 2.2 NE 3.1 0.0 0.0
09:13 1.3 -1.1 84 1044.0 2.2 N 3.1 0.0 0.0
09:14 1.4 -1.0 84 1043.9 2.2 NE 3.1 0.0 0.0
09:15 1.4 -1.0 84 1043.8 2.2 N 3.1 0.0 0.0
09:16 1.5 -0.9 84 1043.8 3.1 N 3.1 0.0 0.0
09:17 1.5 -0.9 84 1043.9 2.2 N 3.1 0.0 0.0
09:18 1.5 -0.9 84 1043.9 2.2 N 3.1 0.0 0.0
09:19 1.5 -0.9 84 1043.9 1.6 N 3.1 0.0 0.0
09:20 1.6 -0.8 84 1044.0 2.2 N 3.1 0.0 0.0
09:21 1.6 -0.8 84 1043.9 2.2 N 3.1 0.0 0.0
09:22 1.6 -0.8 84 1043.9 2.2 NE 3.1 0.0 0.0
09:23 1.6 -0.8 84 1044.0 3.1 NE 3.1 0.0 0.0
09:24 1.7 -0.7 84 1044.0 2.2 NE 3.1 0.0 0.0
09:26 1.7 -0.7 84 1044.1 2.2 E 3.1 0.0 0.0
09:27 1.7 -0.7 84 1044.1 2.2 NE 3.1 0.0 0.0
09:28 1.7 -0.7 84 1044.2 2.2 N 3.1 0.0 0.0
09:29 1.8 -0.6 84 1044.1 2.2 NE 3.1 0.0 0.0
09:30 1.8 -0.6 84 1044.1 1.6 NE 3.1 0.0 0.0
09:31 1.8 -0.6 84 1044.1 2.2 NNE 3.1 0.0 0.0
09:32 1.8 -0.6 84 1044.2 1.6 NE 3.1 0.0 0.0
09:33 1.8 -0.6 84 1044.3 1.6 N 3.1 0.0 0.0
09:34 1.8 -0.6 84 1044.1 1.6 NE 2.2 0.0 0.0
09:35 1.9 -0.5 84 1044.2 1.6 NE 2.2 0.0 0.0
09:36 1.9 -0.5 84 1044.1 1.6 N 2.2 0.0 0.0
09:37 1.9 -0.5 84 1044.2 1.6 N 2.2 0.0 0.0
09:38 2.0 -0.4 84 1044.2 1.6 N 2.2 0.0 0.0
09:40 2.0 -0.4 84 1044.3 1.6 N 2.2 0.0 0.0
09:41 2.0 -0.4 84 1044.2 1.6 NNE 2.2 0.0 0.0
09:42 2.0 -0.4 84 1044.2 2.2 N 2.2 0.0 0.0
09:43 2.0 -0.4 84 1044.3 2.2 NE 2.2 0.0 0.0
09:44 2.1 -0.3 84 1044.3 1.6 NE 2.2 0.0 0.0
09:45 2.1 -0.3 84 1044.3 1.6 N 2.2 0.0 0.0
09:46 2.1 -0.3 84 1044.3 1.6 N 2.2 0.0 0.0
09:47 2.2 -0.2 84 1044.4 1.6 N 2.2 0.0 0.0
09:48 2.2 -0.2 84 1044.4 1.6 N 2.2 0.0 0.0
09:49 2.3 -0.1 84 1044.4 2.2 NE 2.2 0.0 0.0
09:50 2.3 -0.1 84 1044.5 1.6 NE 2.2 0.0 0.0
09:51 2.4 0.0 84 1044.3 1.6 N 2.2 0.0 0.0
09:52 2.5 0.1 84 1044.5 1.6 N 2.2 0.0 0.0
09:54 2.6 0.2 84 1044.6 1.6 NE 2.2 0.0 0.0
09:55 2.7 0.3 84 1044.4 0.7 N 2.2 0.0 0.0
09:56 2.7 0.3 84 1044.4 0.7 N 2.2 0.0 0.0
09:57 2.8 0.4 84 1044.5 2.2 NE 2.2 0.0 0.0
09:58 3.0 0.6 84 1044.4 2.2 N 2.2 0.0 0.0
09:59 3.0 0.6 84 1044.5 1.6 N 2.2 0.0 0.0
10:00 3.1 0.7 84 1044.6 0.7 N 2.2 0.0 0.0
10:01 3.1 0.7 84 1044.5 0.7 N 2.2 0.0 0.0
10:02 3.1 0.7 84 1044.6 0.7 N 2.2 0.0 0.0
10:03 3.1 0.7 84 1044.6 0.7 N 2.2 0.0 0.0
10:04 3.1 0.7 84 1044.7 0.7 N 2.2 0.0 0.0
10:05 3.7 1.3 84 1044.7 1.6 N 2.2 0.0 0.0
10:06 3.7 1.3 84 1044.7 1.6 NW 2.2 0.0 0.0
10:08 3.9 1.4 84 1044.7 2.2 N 2.2 0.0 0.0
10:09 4.0 1.5 84 1044.7 2.2 N 2.2 0.0 0.0
10:10 4.0 1.5 84 1044.8 2.2 NW 2.2 0.0 0.0
10:11 4.1 1.6 84 1044.7 2.2 N 2.2 0.0 0.0
10:12 4.2 1.7 84 1044.7 2.2 N 2.2 0.0 0.0
10:13 4.2 1.7 84 1044.7 2.2 N 2.2 0.0 0.0
10:14 4.4 1.9 84 1044.8 3.1 N 3.1 0.0 0.0
10:15 4.4 1.9 84 1044.9 3.1 N 3.1 0.0 0.0
10:16 4.5 2.0 84 1044.9 3.1 N 3.1 0.0 0.0
10:17 4.6 2.1 84 1044.8 2.2 N 3.1 0.0 0.0
10:18 4.6 2.1 84 1044.9 2.2 NE 3.1 0.0 0.0
10:19 4.7 2.2 84 1044.9 3.1 NE 3.1 0.0 0.0
10:20 4.8 2.3 84 1044.9 2.2 NW 3.1 0.0 0.0
10:21 4.9 2.4 84 1044.9 3.1 WNW 3.1 0.0 0.0
10:23 5.0 2.4 83 1045.0 2.2 N 3.1 0.0 0.0
10:24 5.0 2.4 83 1045.1 2.2 N 3.1 0.0 0.0
10:25 5.0 2.4 83 1045.1 1.6 N 3.1 0.0 0.0
10:26 5.1 2.5 83 1045.0 2.2 N 3.1 0.0 0.0
10:27 5.1 2.5 83 1045.0 2.2 N 3.1 0.0 0.0
10:28 5.1 2.3 82 1045.1 2.2 N 3.1 0.0 0.0
10:29 5.0 2.0 81 1045.0 1.6 N 3.1 0.0 0.0
10:30 5.0 2.0 81 1044.9 3.1 NW 3.1 0.0 0.0
10:31 5.0 1.8 80 1045.0 3.1 NW 3.1 0.0 0.0
10:32 5.0 1.8 80 1044.9 3.1 N 3.1 0.0 0.0
10:33 5.1 1.9 80 1045.1 2.2 NW 3.1 0.0 0.0
10:34 5.1 1.9 80 1045.2 3.1 NW 3.1 0.0 0.0
10:35 5.1 1.9 80 1045.2 3.1 N 3.1 0.0 0.0
10:37 5.2 1.9 79 1045.2 2.2 N 3.1 0.0 0.0
10:38 5.2 1.7 78 1045.2 2.2 N 3.1 0.0 0.0
10:39 5.2 1.7 78 1045.3 2.2 N 3.1 0.0 0.0
10:40 5.3 1.8 78 1045.3 2.2 NW 3.1 0.0 0.0
10:41 5.3 1.8 78 1045.3 1.6 N 3.1 0.0 0.0
10:42 5.3 1.6 77 1045.3 3.1 N 3.1 0.0 0.0
10:43 5.4 1.7 77 1045.5 3.1 N 3.1 0.0 0.0
10:44 5.4 1.7 77 1045.3 2.2 NW 3.1 0.0 0.0
10:45 5.5 1.8 77 1045.5 3.8 N 3.8 0.0 0.0
10:46 5.5 1.8 77 1045.6 3.1 NE 3.8 0.0 0.0
10:47 5.5 1.8 77 1045.5 2.2 N 3.8 0.0 0.0
10:48 5.6 1.7 76 1045.5 3.8 N 3.8 0.0 0.0
10:49 5.6 1.7 76 1045.5 2.2 N 3.8 0.0 0.0
10:51 5.7 1.8 76 1045.7 3.1 N 3.8 0.0 0.0
10:52 5.7 1.8 76 1045.6 3.1 N 3.8 0.0 0.0
10:53 5.7 1.8 76 1045.5 2.2 NW 3.8 0.0 0.0
10:54 5.8 1.7 75 1045.6 2.2 NW 3.8 0.0 0.0
10:55 5.9 2.0 76 1045.7 3.1 NW 3.8 0.0 0.0
10:56 5.9 1.8 75 1045.6 3.1 N 3.8 0.0 0.0
10:57 5.9 2.0 76 1045.7 3.1 N 3.8 0.0 0.0
10:58 6.0 2.1 76 1045.7 3.1 N 3.8 0.0 0.0
10:59 6.0 2.1 76 1045.7 3.1 N 3.8 0.0 0.0
11:00 6.0 2.1 76 1045.7 3.1 N 3.8 0.0 0.0
11:01 6.0 2.1 76 1045.8 3.1 N 3.8 0.0 0.0
11:02 6.0 2.1 76 1045.7 3.1 N 3.8 0.0 0.0
11:04 6.2 1.9 74 1045.7 3.1 NE 3.1 0.0 0.0
11:05 6.2 1.9 74 1045.8 3.1 NE 3.1 0.0 0.0
11:06 6.3 2.0 74 1045.8 3.1 N 3.1 0.0 0.0
11:07 6.3 2.0 74 1045.8 4.5 NE 4.5 0.0 0.0
11:08 6.3 2.0 74 1045.7 4.5 NE 4.5 0.0 0.0
11:09 6.3 2.0 74 1045.8 3.8 NE 4.5 0.0 0.0
11:10 6.3 2.0 74 1045.9 3.8 NE 4.5 0.0 0.0
11:11 6.3 2.0 74 1045.8 3.8 NE 4.5 0.0 0.0
11:12 6.3 2.0 74 1046.0 3.8 NE 4.5 0.0 0.0
11:13 6.3 2.0 74 1045.8 3.8 NE 4.5 0.0 0.0
11:14 6.3 2.0 74 1045.9 3.8 NE 4.5 0.0 0.0
11:15 6.3 2.0 74 1045.8 3.8 NE 4.5 0.0 0.0
11:16 6.3 2.0 74 1045.7 3.8 NE 4.5 0.0 0.0
11:17 6.3 2.0 74 1045.8 3.8 NE 4.5 0.0 0.0
11:19 6.3 2.0 74 1045.7 3.8 NE 4.5 0.0 0.0
11:20 6.3 2.0 74 1045.9 3.8 NE 4.5 0.0 0.0
11:21 6.3 2.0 74 1045.8 3.8 NE 4.5 0.0 0.0
11:22 6.3 2.0 74 1045.8 3.8 NE 4.5 0.0 0.0
11:23 6.3 2.0 74 1045.9 3.8 NE 4.5 0.0 0.0
11:24 6.3 2.0 74 1045.9 3.8 NE 4.5 0.0 0.0
11:25 6.3 2.0 74 1046.0 3.8 NE 4.5 0.0 0.0
11:26 6.3 2.0 74 1045.7 3.8 NE 4.5 0.0 0.0
11:27 6.3 2.0 74 1045.8 3.8 NE 4.5 0.0 0.0
11:28 6.3 2.0 74 1045.8 3.8 NE 4.5 0.0 0.0
11:29 6.3 2.0 74 1045.7 3.8 NE 4.5 0.0 0.0
11:30 6.3 2.0 74 1045.8 3.8 NE 4.5 0.0 0.0
11:31 6.3 2.0 74 1045.9 3.8 NE 4.5 0.0 0.0
11:33 6.3 2.0 74 1045.8 3.8 NE 4.5 0.0 0.0
11:34 6.3 2.0 74 1045.7 3.8 NE 4.5 0.0 0.0
11:35 6.3 2.0 74 1045.8 3.8 NE 4.5 0.0 0.0
11:36 6.3 2.0 74 1045.7 3.8 NE 4.5 0.0 0.0
11:37 6.3 2.0 74 1045.6 3.8 NE 4.5 0.0 0.0
11:38 6.3 2.0 74 1045.7 3.8 NE 4.5 0.0 0.0
11:39 6.3 2.0 74 1045.6 3.8 NE 4.5 0.0 0.0
11:40 6.3 2.0 74 1045.7 3.8 NE 4.5 0.0 0.0
11:41 6.3 2.0 74 1045.7 3.8 NE 4.5 0.0 0.0
11:42 6.3 2.0 74 1045.7 3.8 NE 4.5 0.0 0.0
11:43 6.3 2.0 74 1045.6 3.8 NE 4.5 0.0 0.0
11:44 6.3 2.0 74 1045.7 3.8 NE 4.5 0.0 0.0
11:45 6.3 2.0 74 1045.6 3.8 NE 4.5 0.0 0.0
11:47 6.3 2.0 74 1045.6 3.8 NE 4.5 0.0 0.0
11:48 6.3 2.0 74 1045.6 3.8 NE 4.5 0.0 0.0
11:49 6.3 2.0 74 1045.5 3.8 NE 4.5 0.0 0.0
11:50 6.3 2.0 74 1045.6 3.8 NE 4.5 0.0 0.0
11:51 6.3 2.0 74 1045.5 3.8 NE 4.5 0.0 0.0
11:52 6.3 2.0 74 1045.6 3.8 NE 4.5 0.0 0.0
11:53 6.3 2.0 74 1045.6 3.8 NE 4.5 0.0 0.0
11:54 6.3 2.0 74 1045.5 3.8 NE 4.5 0.0 0.0
11:55 6.3 2.0 74 1045.5 3.8 NE 4.5 0.0 0.0
11:56 8.0 2.9 70 1045.6 3.8 WNW 3.8 0.0 0.0
11:57 8.0 2.9 70 1045.7 3.8 WNW 3.8 0.0 0.0
11:58 8.0 2.9 70 1045.5 3.8 WNW 3.8 0.0 0.0
11:59 8.0 2.9 70 1045.6 3.8 WNW 3.8 0.0 0.0
12:00 8.0 2.9 70 1045.5 3.8 WNW 3.8 0.0 0.0
12:01 8.0 2.9 70 1045.6 3.8 WNW 3.8 0.0 0.0
12:04 8.0 2.9 70 1045.7 3.8 WNW 3.8 0.0 0.0
12:05 8.0 2.9 70 1045.7 3.8 WNW 3.8 0.0 0.0
12:06 8.0 2.9 70 1045.5 3.8 WNW 3.8 0.0 0.0
12:07 8.0 2.9 70 1045.7 3.8 WNW 3.8 0.0 0.0
12:08 8.0 2.9 70 1045.3 3.8 WNW 3.8 0.0 0.0
12:09 8.0 2.9 70 1045.6 3.8 WNW 3.8 0.0 0.0
12:10 8.2 2.6 68 1045.4 2.2 NE 3.8 0.0 0.0
12:11 8.3 2.7 68 1045.3 2.2 N 3.8 0.0 0.0
12:12 8.3 3.0 69 1045.3 3.1 WNW 3.8 0.0 0.0
12:13 8.4 3.0 69 1045.3 2.2 NW 3.8 0.0 0.0
12:14 8.4 2.8 68 1045.2 2.2 N 3.8 0.0 0.0
12:15 8.4 2.8 68 1045.2 2.2 NE 3.8 0.0 0.0
12:16 8.5 2.9 68 1045.3 3.1 NW 3.8 0.0 0.0
12:18 8.6 2.8 67 1045.2 2.2 NE 3.1 0.0 0.0
12:19 8.6 2.8 67 1045.2 2.2 NE 3.1 0.0 0.0
12:20 8.6 2.8 67 1045.2 2.2 N 3.1 0.0 0.0
12:21 8.6 2.8 67 1045.1 3.1 NW 3.1 0.0 0.0
12:22 8.6 2.8 67 1045.0 2.2 NW 3.1 0.0 0.0
12:23 8.7 3.1 68 1045.0 2.2 NE 3.1 0.0 0.0
12:24 8.7 3.1 68 1045.1 3.1 NE 3.1 0.0 0.0
12:25 8.7 3.1 68 1045.1 2.2 NNE 3.1 0.0 0.0
12:26 8.8 3.0 67 1045.0 2.2 W 3.1 0.0 0.0
12:27 8.9 3.3 68 1045.1 2.2 NE 3.1 0.0 0.0
12:28 8.9 3.3 68 1045.2 3.8 NE 3.8 0.0 0.0
12:29 9.0 3.2 67 1045.2 3.1 N 3.8 0.0 0.0
12:30 9.1 3.3 67 1045.2 1.6 N 3.8 0.0 0.0
12:32 9.3 3.3 66 1045.1 2.2 NE 3.8 0.0 0.0
12:33 9.3 3.3 66 1045.1 2.2 NE 3.8 0.0 0.0
12:34 9.4 3.2 65 1045.1 3.1 NE 3.8 0.0 0.0
12:35 9.5 3.5 66 1045.0 3.1 NE 3.8 0.0 0.0
12:36 9.5 3.5 66 1045.0 3.1 NE 3.8 0.0 0.0
12:37 9.5 3.5 66 1045.0 3.1 NE 3.8 0.0 0.0
12:38 9.5 3.5 66 1045.0 3.1 NE 3.8 0.0 0.0
12:39 9.5 3.5 66 1044.9 3.1 NE 3.1 0.0 0.0
12:40 9.6 3.3 65 1045.0 3.1 NE 3.1 0.0 0.0
12:41 9.6 3.1 64 1045.1 0.7 NE 3.1 0.0 0.0
12:42 9.7 3.2 64 1045.0 1.6 NE 3.1 0.0 0.0
12:43 9.7 3.2 64 1045.0 1.6 NE 3.1 0.0 0.0
12:44 9.7 3.2 64 1044.9 1.6 NE 3.1 0.0 0.0
12:46 9.7 3.2 64 1044.8 1.6 NE 3.1 0.0 0.0
12:47 9.9 3.4 64 1044.9 1.6 N 3.1 0.0 0.0
12:48 10.0 3.1 62 1044.8 1.6 N 3.1 0.0 0.0
12:49 10.0 3.1 62 1044.8 1.6 N 3.1 0.0 0.0
12:50 10.0 3.1 62 1044.7 1.6 NE 3.1 0.0 0.0
12:51 10.0 2.8 61 1044.8 2.2 SE 2.2 0.0 0.0
12:52 10.0 2.6 60 1044.9 3.1 NE 3.1 0.0 0.0
12:53 10.0 2.4 59 1045.0 3.8 N 3.8 0.0 0.0
12:54 9.9 2.0 58 1044.9 1.6 E 3.8 0.0 0.0
12:55 9.9 2.0 58 1045.0 1.6 E 3.8 0.0 0.0
12:56 9.9 2.0 58 1044.9 2.2 S 3.8 0.0 0.0
12:57 9.9 2.0 58 1045.0 3.1 N 3.8 0.0 0.0
12:58 9.9 2.0 58 1044.8 2.2 N 3.8 0.0 0.0
12:59 9.9 2.0 58 1045.0 2.2 N 3.8 0.0 0.0
13:01 9.8 1.9 58 1044.9 3.8 NE 3.8 0.0 0.0
13:03 9.8 1.9 58 1045.0 1.6 E 3.8 0.0 0.0
13:04 9.9 2.3 59 1044.8 2.2 E 3.8 0.0 0.0
13:05 9.9 2.3 59 1044.8 2.2 E 3.8 0.0 0.0
13:06 9.9 2.3 59 1045.0 2.2 NE 3.8 0.0 0.0
13:07 9.9 2.0 58 1044.9 2.2 N 3.8 0.0 0.0
13:08 9.9 2.3 59 1045.0 1.6 N 3.8 0.0 0.0
13:09 10.0 2.6 60 1044.9 2.2 NE 3.8 0.0 0.0
13:10 10.1 2.9 61 1044.9 3.1 NE 3.8 0.0 0.0
13:11 10.1 3.2 62 1044.8 2.2 NE 3.8 0.0 0.0
13:12 10.2 2.5 59 1044.9 3.1 N 3.8 0.0 0.0
13:13 10.2 2.5 59 1045.0 2.2 NE 3.8 0.0 0.0
13:14 10.2 2.5 59 1045.0 3.1 SE 3.8 0.0 0.0
13:15 10.2 2.5 59 1045.1 3.1 SE 3.8 0.0 0.0
13:16 10.2 2.3 58 1045.2 3.1 E 3.8 0.0 0.0
13:17 10.1 2.2 58 1045.2 2.2 SE 3.8 0.0 0.0
13:18 10.1 2.2 58 1045.2 2.2 N 3.8 0.0 0.0
13:20 10.2 2.8 60 1045.1 1.6 NNE 3.8 0.0 0.0
13:21 10.2 2.8 60 1045.1 1.6 NNE 3.8 0.0 0.0
13:22 10.2 2.8 60 1045.2 3.1 NE 3.8 0.0 0.0
13:23 10.3 3.1 61 1045.0 3.1 N 3.1 0.0 0.0
13:24 10.2 2.8 60 1045.1 2.2 N 3.1 0.0 0.0
13:25 10.3 2.9 60 1045.0 0.7 N 3.1 0.0 0.0
13:26 10.3 2.6 59 1045.0 3.1 N 4.5 0.0 0.0
13:27 10.3 2.6 59 1045.0 2.2 N 4.5 0.0 0.0
13:28 10.2 2.5 59 1045.2 2.2 NE 4.5 0.0 0.0
13:29 10.3 2.9 60 1044.9 1.6 N 4.5 0.0 0.0
13:30 10.3 2.6 59 1044.9 1.6 N 4.5 0.0 0.0
13:31 10.3 2.6 59 1045.2 2.2 NE 4.5 0.0 0.0
13:32 10.2 2.3 58 1045.1 2.2 N 4.5 0.0 0.0
13:34 10.2 1.8 56 1045.1 3.8 N 4.5 0.0 0.0
13:35 10.2 1.8 56 1045.2 3.8 N 4.5 0.0 0.0
13:36 10.2 1.8 56 1045.2 3.1 NE 3.8 0.0 0.0
13:37 10.2 1.8 56 1045.2 3.1 NE 3.8 0.0 0.0
13:38 10.2 1.8 56 1045.0 2.2 W 3.8 0.0 0.0
13:39 10.3 1.9 56 1045.1 1.6 NW 3.8 0.0 0.0
13:40 10.3 2.2 57 1045.0 2.2 N 3.8 0.0 0.0
13:41 10.3 1.9 56 1045.0 1.6 N 3.8 0.0 0.0
13:42 10.3 1.9 56 1044.9 2.2 E 3.8 0.0 0.0
13:43 10.3 1.7 55 1045.0 3.1 SE 3.8 0.0 0.0
13:44 10.3 1.7 55 1044.8 2.2 SE 3.8 0.0 0.0
13:45 10.2 1.8 56 1044.8 1.6 NW 3.1 0.0 0.0
13:46 10.3 1.9 56 1045.0 1.6 NW 3.1 0.0 0.0
13:47 10.2 1.6 55 1045.0 2.2 NE 3.1 0.0 0.0
13:49 10.2 1.8 56 1044.9 3.1 SE 3.1 0.0 0.0
13:50 10.2 1.6 55 1044.9 2.2 SE 3.1 0.0 0.0
13:51 10.2 1.6 55 1044.9 1.6 SE 3.1 0.0 0.0
13:52 10.2 1.6 55 1044.9 3.8 N 3.8 0.0 0.0
13:53 10.2 1.6 55 1045.0 3.1 NE 3.8 0.0 0.0
13:54 10.2 1.8 56 1045.0 3.8 N 3.8 0.0 0.0
13:55 10.2 1.8 56 1045.1 3.8 N 3.8 0.0 0.0
13:56 10.2 2.1 57 1045.0 2.2 N 3.8 0.0 0.0
13:57 10.2 1.8 56 1045.2 0.7 E 3.8 0.0 0.0
13:58 10.2 1.8 56 1045.1 1.6 S 3.8 0.0 0.0
13:59 10.2 1.6 55 1045.0 0.7 SE 3.8 0.0 0.0
14:00 10.2 1.8 56 1045.1 0.0 SE 3.8 0.0 0.0
14:01 10.2 1.8 56 1045.1 2.2 NE 3.8 0.0 0.0
14:02 10.2 1.8 56 1045.0 4.5 NE 4.5 0.0 0.0
14:04 10.2 1.8 56 1045.2 3.8 W 4.5 0.0 0.0
14:05 10.2 1.8 56 1045.2 3.8 W 4.5 0.0 0.0
14:06 10.2 1.6 55 1045.0 3.8 N 5.4 0.0 0.0
14:07 10.2 1.6 55 1045.0 2.2 N 5.4 0.0 0.0
14:08 10.2 1.6 55 1045.1 1.6 NW 5.4 0.0 0.0
14:09 10.2 1.8 56 1045.2 1.6 N 5.4 0.0 0.0
14:10 10.2 1.8 56 1045.2 1.6 N 5.4 0.0 0.0
14:11 10.2 1.8 56 1045.2 3.1 N 5.4 0.0 0.0
14:12 10.2 2.1 57 1045.2 3.1 NE 5.4 0.0 0.0
14:13 10.2 2.1 57 1045.4 3.1 N 5.4 0.0 0.0
14:14 10.2 1.8 56 1045.4 3.8 NE 5.4 0.0 0.0
14:15 10.2 1.8 56 1045.4 3.8 NE 5.4 0.0 0.0
14:16 10.2 2.1 57 1045.4 3.1 W 4.5 0.0 0.0
14:18 10.2 1.8 56 1045.4 1.6 N 4.5 0.0 0.0
14:19 10.2 1.6 55 1045.4 1.6 NW 4.5 0.0 0.0
14:20 10.2 1.8 56 1045.4 1.6 NW 4.5 0.0 0.0
14:21 10.2 1.8 56 1045.4 1.6 NE 4.5 0.0 0.0
14:22 10.3 1.9 56 1045.6 3.1 NE 4.5 0.0 0.0
14:23 10.3 1.9 56 1045.5 5.4 NE 5.4 0.0 0.0
14:24 10.3 1.7 55 1045.6 3.8 NE 5.4 0.0 0.0
14:25 10.2 1.6 55 1045.5 5.4 SE 5.4 0.0 0.0
14:26 10.2 1.6 55 1045.6 3.1 N 5.4 0.0 0.0
14:27 10.3 1.4 54 1045.5 3.1 N 5.4 0.0 0.0
14:28 10.2 1.6 55 1045.6 4.5 NE 5.4 0.0 0.0
14:29 10.3 1.7 55 1045.6 3.8 NE 5.4 0.0 0.0
14:30 10.3 1.7 55 1045.6 2.2 NE 5.4 0.0 0.0
14:32 10.2 1.8 56 1045.6 2.2 NE 5.4 0.0 0.0
14:33 10.2 1.8 56 1045.6 2.2 NE 5.4 0.0 0.0
14:34 10.2 1.6 55 1045.7 3.8 NE 5.4 0.0 0.0
14:35 10.2 1.6 55 1045.7 3.8 NE 5.4 0.0 0.0
14:36 10.2 1.6 55 1045.7 2.2 NE 4.5 0.0 0.0
14:37 10.2 1.8 56 1045.7 2.2 N 4.5 0.0 0.0
14:38 10.2 1.8 56 1045.7 2.2 NE 4.5 0.0 0.0
14:39 10.1 2.0 57 1045.8 3.1 NE 3.8 0.0 0.0
14:40 10.1 2.0 57 1045.7 1.6 NE 3.8 0.0 0.0
14:41 10.2 2.1 57 1045.8 2.2 NE 3.8 0.0 0.0
14:42 10.2 1.8 56 1045.7 2.2 NE 3.8 0.0 0.0
14:43 10.2 1.8 56 1045.9 4.5 N 4.5 0.0 0.0
14:44 10.1 1.5 55 1045.7 3.1 NE 4.5 0.0 0.0
14:46 9.9 1.3 55 1045.8 2.2 NE 4.5 0.0 0.0
14:47 9.8 1.2 55 1045.9 3.1 NE 4.5 0.0 0.0
14:48 9.8 1.7 57 1045.8 2.2 NE 4.5 0.0 0.0
14:49 9.9 1.5 56 1045.8 0.7 NE 4.5 0.0 0.0
14:50 9.9 1.3 55 1045.9 3.1 NW 4.5 0.0 0.0
14:51 9.8 1.2 55 1045.8 2.2 NW 4.5 0.0 0.0
14:52 9.8 1.2 55 1045.9 3.1 N 4.5 0.0 0.0
14:53 9.7 1.1 55 1045.9 3.1 NE 4.5 0.0 0.0
14:54 9.8 1.9 58 1045.9 3.1 NE 3.1 0.0 0.0
14:55 9.8 1.9 58 1045.8 3.1 NE 3.1 0.0 0.0
14:56 10.0 1.9 57 1045.8 3.1 NE 3.1 0.0 0.0
14:57 10.0 1.9 57 1045.9 3.1 NE 3.1 0.0 0.0
14:58 10.0 1.6 56 1045.9 3.1 N 3.1 0.0 0.0
14:59 10.0 1.6 56 1045.8 2.2 NE 3.1 0.0 0.0
15:01 9.8 1.2 55 1045.8 3.1 N 3.1 0.0 0.0
15:02 9.8 1.2 55 1045.9 2.2 NE 3.1 0.0 0.0
15:03 9.7 1.3 56 1045.9 1.6 NE 3.1 0.0 0.0
15:04 9.8 1.4 56 1045.9 3.1 NE 3.1 0.0 0.0
15:05 9.8 1.4 56 1045.8 3.1 NE 3.1 0.0 0.0
15:06 9.8 1.4 56 1045.8 3.1 NE 3.1 0.0 0.0
15:07 9.9 1.8 57 1045.7 2.2 NE 3.1 0.0 0.0
15:08 10.0 1.9 57 1046.0 2.2 NE 3.1 0.0 0.0
15:09 10.0 1.6 56 1045.9 3.1 NE 3.1 0.0 0.0
15:10 10.0 1.6 56 1045.9 4.5 NE 4.5 0.0 0.0
15:11 10.0 1.6 56 1045.8 3.8 NE 4.5 0.0 0.0
15:12 10.0 1.6 56 1045.8 4.5 NE 4.5 0.0 0.0
15:13 10.0 1.6 56 1046.0 4.5 NE 4.5 0.0 0.0
15:14 10.0 1.6 56 1046.1 3.8 NE 4.5 0.0 0.0
15:15 10.0 1.4 55 1045.9 3.1 NE 4.5 0.0 0.0
15:17 10.0 1.6 56 1045.9 3.1 N 4.5 0.0 0.0
15:18 10.0 1.1 54 1045.9 2.2 NE 4.5 0.0 0.0
15:19 10.0 1.4 55 1046.0 2.2 N 4.5 0.0 0.0
15:20 9.9 1.0 54 1045.8 1.6 NE 4.5 0.0 0.0
15:21 9.9 1.3 55 1046.0 2.2 NE 4.5 0.0 0.0
15:22 9.8 0.9 54 1045.9 3.1 NE 4.5 0.0 0.0
15:23 9.8 1.2 55 1046.0 2.2 NE 4.5 0.0 0.0
15:24 9.8 1.2 55 1045.9 2.2 NE 4.5 0.0 0.0
15:25 9.8 1.2 55 1046.1 3.8 NE 4.5 0.0 0.0
15:26 9.8 1.2 55 1046.1 3.1 NE 3.8 0.0 0.0
15:27 9.8 1.2 55 1046.0 2.2 NE 3.8 0.0 0.0
15:28 9.9 1.3 55 1046.1 2.2 E 3.8 0.0 0.0
15:29 9.9 1.0 54 1046.2 3.1 ENE 3.8 0.0 0.0
15:31 9.8 0.9 54 1046.0 3.8 ENE 3.8 0.0 0.0
15:32 9.8 0.7 53 1046.0 3.1 ENE 3.8 0.0 0.0
15:33 9.8 0.7 53 1046.0 3.1 ENE 3.8 0.0 0.0
15:34 9.7 0.6 53 1046.2 1.6 ENE 3.8 0.0 0.0
15:35 9.6 0.8 54 1046.1 1.6 ENE 3.8 0.0 0.0
15:36 9.6 1.0 55 1046.1 1.6 ENE 3.8 0.0 0.0
15:37 9.6 1.0 55 1046.1 0.7 ENE 3.8 0.0 0.0
15:38 9.6 0.8 54 1046.3 1.6 ENE 3.8 0.0 0.0
15:39 9.5 0.4 53 1046.3 1.6 ENE 3.8 0.0 0.0
15:40 9.5 0.9 55 1046.3 1.6 ENE 3.8 0.0 0.0
15:41 9.5 0.9 55 1046.4 1.6 ENE 3.8 0.0 0.0
15:42 9.5 0.7 54 1046.2 1.6 E 3.1 0.0 0.0
15:43 9.5 0.9 55 1046.3 1.6 E 2.2 0.0 0.0
15:44 9.5 0.9 55 1046.2 2.2 E 3.1 0.0 0.0
15:45 9.5 0.9 55 1046.3 2.2 E 3.1 0.0 0.0
15:47 9.4 0.8 55 1046.3 1.6 E 3.1 0.0 0.0
15:48 9.4 0.8 55 1046.2 2.2 E 3.1 0.0 0.0
15:49 9.4 1.3 57 1046.2 3.1 E 3.1 0.0 0.0
15:50 9.4 1.1 56 1046.3 2.2 E 3.1 0.0 0.0
15:51 9.4 1.1 56 1046.2 1.6 E 3.1 0.0 0.0
15:52 9.4 1.1 56 1046.3 2.2 E 3.1 0.0 0.0
15:53 9.4 1.3 57 1046.3 2.2 E 3.1 0.0 0.0
15:54 9.4 1.3 57 1046.3 3.1 N 3.1 0.0 0.0
15:55 9.4 1.1 56 1046.4 1.6 NE 3.1 0.0 0.0
15:56 9.3 0.7 55 1046.4 2.2 NE 3.1 0.0 0.0
15:57 9.2 0.9 56 1046.3 2.2 NNE 3.1 0.0 0.0
15:58 9.1 0.8 56 1046.3 2.2 NE 3.1 0.0 0.0
16:00 9.1 0.8 56 1046.3 3.1 NNE 3.1 0.0 0.0
16:02 9.0 0.7 56 1046.4 3.1 N 3.1 0.0 0.0
16:03 9.0 0.9 57 1046.4 1.6 NE 3.1 0.0 0.0
16:04 8.9 0.6 56 1046.3 1.6 NE 3.1 0.0 0.0
16:05 8.9 0.6 56 1046.4 2.2 N 3.1 0.0 0.0
16:06 8.9 0.6 56 1046.3 2.2 NE 3.1 0.0 0.0
16:07 8.8 0.5 56 1046.4 3.1 NE 3.1 0.0 0.0
16:08 8.8 0.5 56 1046.4 3.8 NE 3.8 0.0 0.0
16:09 8.7 0.4 56 1046.6 3.8 NE 3.8 0.0 0.0
16:10 8.6 0.6 57 1046.5 3.8 NE 3.8 0.0 0.0
16:11 8.6 0.8 58 1046.4 3.1 NE 3.8 0.0 0.0
16:12 8.5 0.7 58 1046.3 2.2 NE 3.8 0.0 0.0
16:13 8.5 0.7 58 1046.5 3.1 N 3.8 0.0 0.0
16:14 8.5 0.7 58 1046.4 3.1 NE 3.8 0.0 0.0
16:16 8.5 0.9 59 1046.5 2.2 NE 3.8 0.0 0.0
16:17 8.4 0.6 58 1046.5 1.6 NE 3.8 0.0 0.0
16:18 8.4 0.9 59 1046.4 1.6 NE 3.8 0.0 0.0
16:19 8.4 0.9 59 1046.4 1.6 NE 3.8 0.0 0.0
16:20 8.4 0.9 59 1046.4 1.6 NE 3.8 0.0 0.0
16:21 8.3 0.5 58 1046.4 1.6 NE 3.1 0.0 0.0
16:22 8.2 0.2 57 1046.4 2.2 N 3.1 0.0 0.0
16:23 8.1 0.3 58 1046.4 1.6 N 3.1 0.0 0.0
16:24 8.0 0.2 58 1046.4 1.6 N 3.1 0.0 0.0
16:25 8.0 0.2 58 1046.4 1.6 N 3.1 0.0 0.0
16:26 7.8 0.3 59 1046.4 1.6 N 3.1 0.0 0.0
16:27 7.7 0.2 59 1046.3 2.2 NNE 2.2 0.0 0.0
16:28 7.6 0.1 59 1046.4 2.2 NE 2.2 0.0 0.0
16:29 7.6 0.1 59 1046.3 1.6 NE 2.2 0.0 0.0
16:30 7.5 0.2 60 1046.4 1.6 NE 2.2 0.0 0.0
16:31 7.5 0.2 60 1046.6 1.6 NE 2.2 0.0 0.0
16:33 7.6 0.6 61 1046.4 1.6 NE 2.2 0.0 0.0
16:34 7.6 0.6 61 1046.5 1.6 NE 2.2 0.0 0.0
16:35 7.6 0.6 61 1046.5 0.7 NE 2.2 0.0 0.0
16:36 7.6 0.6 61 1046.4 1.6 NE 2.2 0.0 0.0
16:37 7.6 0.6 61 1046.3 1.6 NE 2.2 0.0 0.0
16:38 7.7 0.7 61 1046.4 1.6 NE 2.2 0.0 0.0
16:39 7.7 0.7 61 1046.5 1.6 NE 2.2 0.0 0.0
16:40 7.6 0.6 61 1046.5 1.6 NE 1.6 0.0 0.0
16:41 7.7 0.7 61 1046.6 1.6 NE 1.6 0.0 0.0
16:42 7.7 0.7 61 1046.6 1.6 NE 1.6 0.0 0.0
16:43 7.7 0.7 61 1046.5 1.6 NE 1.6 0.0 0.0
16:44 7.7 0.7 61 1046.6 1.6 NE 1.6 0.0 0.0
16:45 7.7 0.7 61 1046.5 1.6 NE 1.6 0.0 0.0
16:46 7.7 0.7 61 1046.6 1.6 NE 1.6 0.0 0.0
16:48 7.7 0.7 61 1046.5 1.6 NE 1.6 0.0 0.0
16:49 7.6 0.6 61 1046.5 1.6 NE 1.6 0.0 0.0
16:50 7.7 0.4 60 1046.5 1.6 NE 1.6 0.0 0.0
16:51 7.6 0.6 61 1046.5 1.6 NE 1.6 0.0 0.0
16:52 7.6 0.6 61 1046.4 1.6 NE 1.6 0.0 0.0
16:53 7.6 0.6 61 1046.4 1.6 NE 1.6 0.0 0.0
16:54 7.5 0.5 61 1046.3 1.6 NE 1.6 0.0 0.0
16:55 7.5 0.5 61 1046.4 1.6 NE 1.6 0.0 0.0
16:56 7.4 0.4 61 1046.5 1.6 NE 1.6 0.0 0.0
16:57 7.4 0.4 61 1046.4 1.6 NE 1.6 0.0 0.0
16:58 7.3 0.1 60 1046.5 1.6 NE 1.6 0.0 0.0
16:59 7.3 0.1 60 1046.5 1.6 NE 1.6 0.0 0.0
17:00 7.2 0.0 60 1046.7 1.6 NE 1.6 0.0 0.0
17:01 7.2 0.0 60 1046.7 1.6 NE 1.6 0.0 0.0
17:03 7.2 0.0 60 1046.5 1.6 NE 1.6 0.0 0.0
17:04 7.2 0.0 60 1046.5 1.6 NE 1.6 0.0 0.0
17:05 7.2 0.0 60 1046.6 1.6 NE 1.6 0.0 0.0
17:06 6.9 -0.3 60 1046.6 2.2 NE 2.2 0.0 0.0
17:07 6.9 -0.1 61 1046.5 2.2 NE 2.2 0.0 0.0
17:08 6.8 -0.4 60 1046.7 2.2 NE 2.2 0.0 0.0
17:09 6.8 -0.4 60 1046.6 3.1 NE 3.1 0.0 0.0
17:10 6.7 -0.3 61 1046.7 3.1 NE 3.1 0.0 0.0
17:11 6.7 -0.3 61 1046.7 2.2 NE 3.1 0.0 0.0
17:12 6.6 -0.4 61 1046.8 3.1 NE 3.1 0.0 0.0
17:13 6.6 -0.4 61 1046.7 3.1 NE 3.1 0.0 0.0
17:14 6.5 -0.5 61 1046.6 3.1 NE 3.8 0.0 0.0
17:15 6.5 -0.7 60 1046.7 2.2 NE 3.8 0.0 0.0
17:16 6.4 -0.6 61 1046.8 2.2 NE 3.8 0.0 0.0
17:17 6.3 -0.7 61 1046.8 2.2 NE 3.8 0.0 0.0
17:18 6.3 -0.7 61 1046.7 2.2 NE 3.8 0.0 0.0
17:19 6.3 -0.7 61 1046.7 2.2 NE 3.8 0.0 0.0
17:21 6.2 -0.8 61 1046.7 2.2 NE 3.8 0.0 0.0
17:22 6.1 -0.9 61 1046.7 1.6 NE 3.8 0.0 0.0
17:23 6.1 -0.9 61 1046.5 1.6 NE 3.8 0.0 0.0
17:24 6.1 -0.9 61 1046.6 1.6 NE 3.1 0.0 0.0
17:25 6.0 -0.9 61 1046.7 2.2 NE 2.2 0.0 0.0
17:26 6.0 -0.9 61 1046.7 2.2 NE 2.2 0.0 0.0
17:27 6.0 -0.9 61 1046.8 2.2 NE 2.2 0.0 0.0
17:28 6.0 -0.9 61 1046.7 2.2 NE 2.2 0.0 0.0
17:29 6.0 -0.9 61 1046.8 2.2 NE 2.2 0.0 0.0
17:30 5.8 -1.1 61 1046.8 1.6 NE 2.2 0.0 0.0
17:31 5.7 -1.2 61 1046.9 3.1 NE 3.1 0.0 0.0
17:32 5.7 -1.2 61 1046.8 3.1 NE 3.1 0.0 0.0
17:33 5.7 -1.2 61 1046.9 3.1 NE 3.1 0.0 0.0
17:34 5.7 -1.2 61 1046.8 3.1 NE 3.1 0.0 0.0
17:35 5.7 -1.2 61 1046.8 3.1 NE 3.1 0.0 0.0
17:37 5.4 -1.3 62 1046.8 1.6 N 3.1 0.0 0.0
17:38 5.3 -1.4 62 1046.7 1.6 N 3.1 0.0 0.0
17:39 5.3 -1.4 62 1046.8 1.6 N 3.1 0.0 0.0
17:40 5.3 -1.4 62 1046.8 1.6 N 3.1 0.0 0.0
17:41 5.3 -1.4 62 1046.8 1.6 N 3.1 0.0 0.0
17:42 5.3 -1.4 62 1046.8 1.6 N 3.1 0.0 0.0
17:43 5.3 -1.4 62 1046.9 1.6 N 3.1 0.0 0.0
17:44 5.3 -1.4 62 1046.7 1.6 N 3.1 0.0 0.0
17:45 5.3 -1.4 62 1046.7 1.6 N 3.1 0.0 0.0
17:46 5.3 -1.4 62 1046.9 1.6 N 3.1 0.0 0.0
17:47 5.1 -1.4 63 1046.9 3.1 NE 3.1 0.0 0.0
17:48 5.1 -1.4 63 1046.9 3.1 NE 3.1 0.0 0.0
17:49 5.1 -1.4 63 1046.9 3.1 NE 3.1 0.0 0.0
17:51 5.0 -1.5 63 1046.8 1.6 NE 3.1 0.0 0.0
17:52 5.0 -1.2 64 1046.9 1.6 NE 3.1 0.0 0.0
17:53 5.0 -1.2 64 1046.7 1.6 NE 3.1 0.0 0.0
17:54 5.0 -1.2 64 1046.9 1.6 NE 3.1 0.0 0.0
17:55 5.0 -1.2 64 1046.8 1.6 NE 3.1 0.0 0.0
17:56 5.0 -1.2 64 1046.7 1.6 NE 3.1 0.0 0.0
17:57 5.0 -1.2 64 1046.8 1.6 NE 3.1 0.0 0.0
17:58 4.7 -1.7 63 1046.8 0.0 N 3.1 0.0 0.0
17:59 4.7 -1.7 63 1046.7 0.0 N 3.1 0.0 0.0
18:00 4.7 -1.7 63 1046.9 0.0 N 3.1 0.0 0.0
18:01 4.7 -1.7 63 1046.8 0.0 N 1.6 0.0 0.0
18:02 4.7 -1.7 63 1046.7 0.0 N 1.6 0.0 0.0
18:04 4.7 -1.7 63 1046.9 0.0 N 1.6 0.0 0.0
18:05 4.7 -1.7 63 1047.0 0.0 N 1.6 0.0 0.0
18:06 4.7 -1.7 63 1046.8 0.0 N 1.6 0.0 0.0
18:07 4.0 -2.2 64 1046.9 2.2 NE 2.2 0.0 0.0
18:08 3.9 -2.3 64 1046.9 1.6 NE 2.2 0.0 0.0
18:09 3.9 -2.3 64 1046.7 1.6 N 2.2 0.0 0.0
18:10 3.9 -2.3 64 1046.9 1.6 N 2.2 0.0 0.0
18:11 3.9 -2.3 64 1046.9 1.6 N 2.2 0.0 0.0
18:12 3.9 -2.3 64 1046.7 2.2 N 2.2 0.0 0.0
18:13 3.9 -2.1 65 1046.9 1.6 N 2.2 0.0 0.0
18:14 3.9 -2.1 65 1046.8 2.2 NNE 2.2 0.0 0.0
18:15 3.9 -2.1 65 1046.9 2.2 NNE 2.2 0.0 0.0
18:16 3.9 -2.1 65 1046.9 3.1 NE 3.1 0.0 0.0
18:17 3.9 -2.1 65 1046.9 3.1 NE 3.1 0.0 0.0
18:19 3.8 -2.2 65 1046.9 3.1 NE 3.1 0.0 0.0
18:20 3.8 -2.0 66 1046.9 3.1 NE 3.1 0.0 0.0
18:21 3.8 -2.0 66 1046.8 3.8 NE 3.8 0.0 0.0
18:22 3.9 -1.9 66 1047.0 2.2 N 3.8 0.0 0.0
18:23 3.8 -2.0 66 1047.0 1.6 NE 3.8 0.0 0.0
18:24 3.8 -2.0 66 1046.9 1.6 NE 3.8 0.0 0.0
18:25 3.8 -2.0 66 1046.9 2.2 N 3.8 0.0 0.0
18:26 3.9 -1.9 66 1046.9 2.2 NE 3.8 0.0 0.0
18:27 3.9 -1.9 66 1047.0 2.2 NE 3.8 0.0 0.0
18:28 3.9 -1.9 66 1046.9 3.1 NE 3.8 0.0 0.0
18:29 3.9 -1.9 66 1047.0 3.1 NE 3.8 0.0 0.0
18:30 3.9 -1.9 66 1047.0 3.1 NE 3.8 0.0 0.0
18:31 3.8 -1.8 67 1046.9 3.1 NE 3.1 0.0 0.0
18:33 3.8 -1.8 67 1046.9 2.2 NE 3.1 0.0 0.0
18:34 3.8 -1.8 67 1046.8 2.2 NE 3.1 0.0 0.0
18:35 3.8 -1.8 67 1046.8 3.1 NE 3.1 0.0 0.0
18:36 3.8 -1.8 67 1046.8 3.1 NE 3.1 0.0 0.0
18:37 3.8 -1.8 67 1046.8 3.1 NE 3.1 0.0 0.0
18:38 3.8 -1.8 67 1046.8 3.1 N 3.1 0.0 0.0
18:39 3.8 -1.8 67 1046.9 2.2 N 3.1 0.0 0.0
18:40 3.8 -1.8 67 1046.9 1.6 N 3.1 0.0 0.0
18:41 3.8 -1.8 67 1046.9 1.6 N 3.1 0.0 0.0
18:42 3.8 -1.8 67 1046.9 1.6 N 3.1 0.0 0.0
18:43 3.8 -1.8 67 1047.0 2.2 NE 3.1 0.0 0.0
18:44 3.8 -1.8 67 1047.0 2.2 NE 3.1 0.0 0.0
18:45 3.8 -1.8 67 1047.1 2.2 NE 3.1 0.0 0.0
18:47 3.8 -1.8 67 1047.0 2.2 NE 3.1 0.0 0.0
18:48 3.8 -1.8 67 1047.0 2.2 N 3.1 0.0 0.0
18:49 3.8 -1.8 67 1047.0 2.2 N 2.2 0.0 0.0
18:50 3.8 -1.8 67 1046.9 2.2 N 2.2 0.0 0.0
18:51 3.8 -1.6 68 1046.9 2.2 NE 2.2 0.0 0.0
18:52 3.8 -1.6 68 1047.0 2.2 N 2.2 0.0 0.0
18:53 3.8 -1.8 67 1046.9 2.2 NNE 2.2 0.0 0.0
18:54 3.7 -1.9 67 1047.0 2.2 N 2.2 0.0 0.0
18:55 3.7 -1.7 68 1047.0 3.1 NE 3.1 0.0 0.0
18:56 3.7 -1.7 68 1046.8 2.2 NE 3.1 0.0 0.0
18:57 3.7 -1.7 68 1047.1 2.2 NE 3.1 0.0 0.0
18:58 3.7 -1.7 68 1047.0 2.2 NE 3.1 0.0 0.0
18:59 3.7 -1.7 68 1047.0 1.6 NE 3.1 0.0 0.0
19:00 3.7 -1.7 68 1047.1 1.6 NE 3.1 0.0 0.0
19:02 3.7 -1.7 68 1047.2 1.6 NE 3.1 0.0 0.0
19:03 3.7 -1.7 68 1047.1 1.6 NE 3.1 0.0 0.0
19:04 3.7 -1.7 68 1047.2 1.6 NE 3.1 0.0 0.0
19:05 3.7 -1.7 68 1047.2 1.6 NE 3.1 0.0 0.0
19:06 3.7 -1.7 68 1047.2 1.6 NE 2.2 0.0 0.0
19:07 3.7 -1.7 68 1047.1 1.6 NE 2.2 0.0 0.0
19:08 3.7 -1.7 68 1047.2 1.6 NE 2.2 0.0 0.0
19:09 3.5 -1.8 68 1047.3 1.6 N 2.2 0.0 0.0
19:10 3.3 -2.2 67 1047.3 1.6 N 2.2 0.0 0.0
19:11 3.3 -2.2 67 1047.3 1.6 NNE 1.6 0.0 0.0
19:12 3.2 -2.3 67 1047.3 2.2 N 2.2 0.0 0.0
19:13 3.1 -2.4 67 1047.3 2.2 N 2.2 0.0 0.0
19:14 3.1 -2.4 67 1047.4 2.2 NE 2.2 0.0 0.0
19:15 3.1 -2.4 67 1047.4 2.2 NE 2.2 0.0 0.0
19:16 3.0 -2.3 68 1047.4 2.2 N 2.2 0.0 0.0
19:17 3.0 -2.3 68 1047.3 1.6 NE 2.2 0.0 0.0
19:18 3.0 -2.3 68 1047.4 2.2 N 2.2 0.0 0.0
19:20 3.0 -2.3 68 1047.4 2.2 N 2.2 0.0 0.0
19:21 3.0 -2.3 68 1047.4 1.6 N 2.2 0.0 0.0
19:22 3.0 -2.3 68 1047.5 1.6 N 2.2 0.0 0.0
19:23 3.0 -2.3 68 1047.3 1.6 N 2.2 0.0 0.0
19:24 3.1 -2.2 68 1047.5 0.7 N 2.2 0.0 0.0
19:25 3.1 -2.2 68 1047.5 1.6 N 2.2 0.0 0.0
19:26 3.1 -2.0 69 1047.5 0.7 N 2.2 0.0 0.0
19:27 3.1 -2.0 69 1047.5 1.6 N 2.2 0.0 0.0
19:28 3.1 -2.0 69 1047.6 0.7 NW 2.2 0.0 0.0
19:29 3.1 -2.0 69 1047.6 0.7 NW 2.2 0.0 0.0
19:30 3.0 -2.1 69 1047.5 1.6 NW 2.2 0.0 0.0
19:31 3.0 -2.1 69 1047.5 1.6 N 1.6 0.0 0.0
19:32 3.0 -2.1 69 1047.5 1.6 N 1.6 0.0 0.0
19:33 3.0 -2.1 69 1047.6 2.2 NE 2.2 0.0 0.0
19:35 3.0 -2.1 69 1047.7 1.6 N 2.2 0.0 0.0
19:36 3.0 -2.1 69 1047.7 1.6 N 2.2 0.0 0.0
19:37 3.0 -2.1 69 1047.7 1.6 N 2.2 0.0 0.0
19:38 3.0 -2.1 69 1047.7 2.2 NE 2.2 0.0 0.0
19:39 3.0 -2.1 69 1047.6 2.2 NE 2.2 0.0 0.0
19:40 2.9 -2.2 69 1047.6 2.2 NE 2.2 0.0 0.0
19:41 2.9 -2.2 69 1047.7 2.2 N 2.2 0.0 0.0
19:42 2.9 -2.2 69 1047.6 1.6 N 2.2 0.0 0.0
19:43 2.9 -2.2 69 1047.6 1.6 N 2.2 0.0 0.0
19:44 2.9 -2.2 69 1047.7 2.2 NE 2.2 0.0 0.0
19:45 2.9 -2.2 69 1047.5 2.2 N 2.2 0.0 0.0
19:46 2.9 -2.2 69 1047.7 2.2 N 2.2 0.0 0.0
19:47 2.9 -2.0 70 1047.6 3.1 NE 3.1 0.0 0.0
19:48 2.9 -2.0 70 1047.6 2.2 NNE 3.1 0.0 0.0
19:50 2.9 -2.0 70 1047.6 2.2 N 3.1 0.0 0.0
19:51 2.9 -2.0 70 1047.7 1.6 N 3.1 0.0 0.0
19:52 2.9 -2.0 70 1047.8 1.6 N 3.1 0.0 0.0
19:53 2.9 -2.0 70 1047.7 1.6 N 3.1 0.0 0.0
19:54 2.9 -2.0 70 1047.7 0.7 N 3.1 0.0 0.0
19:55 2.8 -2.1 70 1047.7 0.7 N 3.1 0.0 0.0
19:56 2.8 -2.1 70 1047.8 1.6 N 3.1 0.0 0.0
19:57 2.7 -2.2 70 1047.7 2.2 N 3.1 0.0 0.0
19:58 2.6 -2.5 69 1047.9 1.6 N 2.2 0.0 0.0
19:59 2.6 -2.5 69 1047.8 1.6 N 2.2 0.0 0.0
20:00 2.6 -2.5 69 1047.7 1.6 N 2.2 0.0 0.0
20:01 2.6 -2.5 69 1047.7 1.6 N 2.2 0.0 0.0
20:02 2.6 -2.5 69 1047.8 1.6 N 2.2 0.0 0.0
20:03 2.6 -2.5 69 1047.8 1.6 N 2.2 0.0 0.0
20:04 2.6 -2.5 69 1047.8 1.6 N 2.2 0.0 0.0
20:06 2.6 -2.5 69 1047.8 1.6 N 2.2 0.0 0.0
20:07 2.6 -2.5 69 1047.9 1.6 N 1.6 0.0 0.0
20:08 2.6 -2.5 69 1047.8 1.6 N 1.6 0.0 0.0
20:09 2.6 -2.5 69 1047.7 1.6 N 1.6 0.0 0.0
20:10 2.6 -2.3 70 1047.7 2.2 NE 2.2 0.0 0.0
20:11 2.6 -2.3 70 1047.9 2.2 NE 2.2 0.0 0.0
20:12 2.6 -2.1 71 1047.7 2.2 NE 2.2 0.0 0.0
20:13 2.6 -2.1 71 1047.7 3.1 NE 3.1 0.0 0.0
20:14 2.7 -2.0 71 1047.7 3.1 NE 3.1 0.0 0.0
20:15 2.7 -2.0 71 1047.7 3.8 NE 3.8 0.0 0.0
20:16 2.7 -2.0 71 1047.8 3.8 NE 3.8 0.0 0.0
20:17 2.8 -1.9 71 1047.8 3.1 NE 3.8 0.0 0.0
20:18 2.8 -1.9 71 1047.7 3.1 NE 3.8 0.0 0.0
20:19 2.8 -1.9 71 1047.9 3.8 N 3.8 0.0 0.0
20:20 2.9 -1.8 71 1047.9 3.8 NE 3.8 0.0 0.0
20:22 3.0 -1.7 71 1047.9 3.1 NE 3.8 0.0 0.0
20:23 3.0 -1.7 71 1047.7 3.1 NE 3.8 0.0 0.0
20:24 3.0 -1.7 71 1047.9 2.2 NE 3.8 0.0 0.0
20:25 3.0 -1.7 71 1047.8 2.2 NE 3.8 0.0 0.0
20:26 3.0 -1.7 71 1047.9 3.1 NE 3.8 0.0 0.0
20:27 3.0 -1.7 71 1047.8 2.2 NE 3.8 0.0 0.0
20:28 3.0 -1.7 71 1047.9 3.1 N 3.8 0.0 0.0
20:29 3.0 -1.7 71 1047.8 3.1 NE 3.8 0.0 0.0
20:30 3.1 -1.6 71 1047.9 3.1 NE 3.8 0.0 0.0
20:31 3.1 -1.6 71 1047.8 3.1 NE 3.1 0.0 0.0
20:32 3.1 -1.6 71 1047.9 2.2 NE 3.8 0.0 0.0
20:33 3.1 -1.6 71 1047.8 2.2 NE 3.8 0.0 0.0
20:34 3.1 -1.6 71 1047.8 3.1 N 3.8 0.0 0.0
20:35 3.2 -1.5 71 1047.8 3.1 N 3.8 0.0 0.0
20:36 3.2 -1.5 71 1047.8 3.1 NE 3.8 0.0 0.0
20:37 3.2 -1.5 71 1047.8 3.1 N 3.8 0.0 0.0
20:39 3.2 -1.5 71 1047.9 3.1 NE 3.8 0.0 0.0
20:40 3.3 -1.4 71 1047.9 3.1 NE 3.8 0.0 0.0
20:41 3.3 -1.4 71 1047.9 3.1 NE 3.8 0.0 0.0
20:42 3.3 -1.4 71 1047.8 4.5 NE 4.5 0.0 0.0
20:43 3.3 -1.4 71 1047.7 4.5 NE 4.5 0.0 0.0
20:44 3.3 -1.4 71 1047.9 3.8 N 4.5 0.0 0.0
20:45 3.4 -1.4 71 1047.9 3.8 N 4.5 0.0 0.0
20:46 3.4 -1.4 71 1047.9 2.2 N 4.5 0.0 0.0
20:47 3.3 -1.4 71 1047.9 2.2 N 4.5 0.0 0.0
20:48 3.4 -1.4 71 1048.0 1.6 NW 4.5 0.0 0.0
20:49 3.4 -1.4 71 1048.0 2.2 NW 4.5 0.0 0.0
20:50 3.4 -1.4 71 1047.9 2.2 N 4.5 0.0 0.0
20:51 3.4 -1.4 71 1048.1 2.2 N 4.5 0.0 0.0
20:52 3.4 -1.4 71 1047.9 2.2 NE 4.5 0.0 0.0
20:53 3.4 -1.4 71 1048.2 2.2 N 3.8 0.0 0.0
20:54 3.4 -1.4 71 1048.1 2.2 N 3.8 0.0 0.0
20:56 3.4 -1.4 71 1048.1 2.2 NE 3.1 0.0 0.0
20:57 3.4 -1.4 71 1048.1 2.2 NE 3.1 0.0 0.0
20:58 3.3 -1.4 71 1048.2 2.2 N 3.1 0.0 0.0
20:59 3.3 -1.4 71 1048.1 2.2 N 3.1 0.0 0.0
21:00 3.3 -1.4 71 1048.1 2.2 N 3.1 0.0 0.0
21:01 3.3 -1.4 71 1047.9 2.2 N 3.1 0.0 0.0
21:02 3.3 -1.4 71 1047.9 2.2 N 3.1 0.0 0.0
21:03 3.3 -1.4 71 1047.9 2.2 N 3.1 0.0 0.0
21:04 3.3 -1.4 71 1048.0 2.2 N 3.1 0.0 0.0
21:05 3.3 -1.4 71 1048.0 2.2 N 3.1 0.0 0.0
21:06 3.2 -1.5 71 1048.1 2.2 NE 3.1 0.0 0.0
21:07 3.1 -1.6 71 1048.0 2.2 N 3.1 0.0 0.0
21:08 3.2 -1.5 71 1047.9 2.2 N 3.1 0.0 0.0
21:09 3.1 -1.6 71 1048.1 2.2 N 3.1 0.0 0.0
21:10 3.1 -1.6 71 1047.9 2.2 N 3.1 0.0 0.0
21:12 3.0 -1.7 71 1048.0 2.2 N 3.1 0.0 0.0
21:13 3.0 -1.7 71 1048.1 2.2 NE 3.1 0.0 0.0
21:14 3.0 -1.7 71 1048.1 2.2 N 3.1 0.0 0.0
21:15 3.0 -1.7 71 1048.1 1.6 N 3.1 0.0 0.0
21:16 3.0 -1.7 71 1048.0 1.6 N 3.1 0.0 0.0
21:17 3.0 -1.7 71 1048.1 2.2 NE 3.1 0.0 0.0
21:18 3.0 -1.7 71 1047.9 1.6 N 3.1 0.0 0.0
21:19 3.0 -1.7 71 1048.0 2.2 N 2.2 0.0 0.0
21:20 3.0 -1.7 71 1048.0 1.6 N 2.2 0.0 0.0
21:21 3.0 -1.7 71 1048.0 2.2 WNW 2.2 0.0 0.0
21:22 3.0 -1.7 71 1047.9 2.2 N 2.2 0.0 0.0
21:23 3.0 -1.7 71 1048.0 2.2 N 2.2 0.0 0.0
21:24 2.9 -1.8 71 1047.9 3.1 NW 3.1 0.0 0.0
21:25 3.0 -1.7 71 1048.1 3.1 NW 3.1 0.0 0.0
21:26 3.0 -1.7 71 1047.9 3.8 NW 3.8 0.0 0.0
21:27 3.0 -1.7 71 1048.0 3.8 N 3.8 0.0 0.0
21:28 3.0 -1.7 71 1048.0 3.1 N 3.8 0.0 0.0
21:30 2.9 -1.8 71 1048.2 3.1 NW 3.8 0.0 0.0
21:31 2.9 -1.8 71 1048.0 2.2 N 3.8 0.0 0.0
21:32 2.9 -1.8 71 1048.0 3.1 NW 3.8 0.0 0.0
21:33 2.9 -1.8 71 1048.1 3.1 N 3.8 0.0 0.0
21:34 2.9 -1.8 71 1048.1 2.2 NE 3.8 0.0 0.0
21:35 2.9 -1.8 71 1048.1 3.1 N 3.8 0.0 0.0
21:36 2.9 -1.8 71 1048.0 2.2 NE 3.8 0.0 0.0
21:37 2.9 -1.8 71 1048.0 3.1 NE 3.8 0.0 0.0
21:38 2.9 -1.8 71 1048.1 2.2 NE 3.8 0.0 0.0
21:39 2.9 -1.8 71 1048.1 3.8 NE 3.8 0.0 0.0
21:40 2.9 -1.8 71 1048.1 2.2 N 3.8 0.0 0.0
21:41 2.9 -1.8 71 1047.9 2.2 N 3.8 0.0 0.0
21:42 2.9 -1.8 71 1048.1 2.2 NNE 3.8 0.0 0.0
21:43 2.9 -1.8 71 1048.0 2.2 NNE 3.8 0.0 0.0
21:44 2.9 -1.8 71 1048.0 2.2 N 3.8 0.0 0.0
21:46 2.9 -1.8 71 1048.0 1.6 NW 3.8 0.0 0.0
21:47 2.9 -1.8 71 1048.0 1.6 N 3.8 0.0 0.0
21:48 2.9 -1.8 71 1048.0 2.2 N 3.8 0.0 0.0
21:49 2.9 -1.8 71 1048.0 2.2 NW 3.8 0.0 0.0
21:50 2.9 -1.8 71 1048.1 1.6 N 3.1 0.0 0.0
21:51 2.9 -1.8 71 1048.2 1.6 N 3.1 0.0 0.0
21:52 2.9 -1.8 71 1048.2 1.6 N 2.2 0.0 0.0
21:53 2.9 -1.8 71 1048.1 1.6 N 2.2 0.0 0.0
21:54 2.8 -1.9 71 1048.2 0.7 NE 2.2 0.0 0.0
21:55 2.8 -1.9 71 1048.2 0.0 NE 2.2 0.0 0.0
21:56 2.8 -1.9 71 1048.1 0.0 N 2.2 0.0 0.0
21:57 2.7 -2.0 71 1048.0 0.7 N 2.2 0.0 0.0
21:58 2.7 -2.0 71 1048.0 0.7 N 2.2 0.0 0.0
21:59 2.7 -2.0 71 1048.1 0.7 N 2.2 0.0 0.0
22:00 2.7 -2.0 71 1048.2 0.7 N 1.6 0.0 0.0
22:02 2.7 -2.0 71 1048.2 0.7 N 1.6 0.0 0.0
22:03 2.7 -2.0 71 1048.2 0.7 N 1.6 0.0 0.0
22:04 2.7 -2.0 71 1048.2 0.7 N 0.7 0.0 0.0
22:05 2.7 -2.0 71 1048.1 0.7 N 0.7 0.0 0.0
22:06 2.5 -2.2 71 1048.0 1.6 NW 2.2 0.0 0.0
22:07 2.5 -2.2 71 1048.2 1.6 N 2.2 0.0 0.0
22:08 2.5 -2.2 71 1048.2 1.6 N 2.2 0.0 0.0
22:09 2.5 -2.2 71 1048.2 1.6 N 2.2 0.0 0.0
22:10 2.4 -2.3 71 1048.2 1.6 NE 2.2 0.0 0.0
22:11 2.4 -2.3 71 1048.1 1.6 NE 2.2 0.0 0.0
22:12 2.3 -2.4 71 1048.2 1.6 N 2.2 0.0 0.0
22:13 2.3 -2.4 71 1047.9 1.6 N 2.2 0.0 0.0
22:14 2.3 -2.4 71 1048.2 1.6 N 2.2 0.0 0.0
22:15 2.3 -2.4 71 1048.2 1.6 N 2.2 0.0 0.0
22:16 2.2 -2.5 71 1048.2 0.7 N 1.6 0.0 0.0
22:18 2.1 -2.6 71 1048.1 0.0 N 1.6 0.0 0.0
22:19 2.1 -2.6 71 1048.2 0.0 N 1.6 0.0 0.0
22:20 2.0 -2.7 71 1048.4 0.0 N 1.6 0.0 0.0
22:21 2.0 -2.7 71 1048.3 0.0 N 1.6 0.0 0.0
22:22 1.9 -2.8 71 1048.2 0.0 N 1.6 0.0 0.0
22:23 1.8 -2.9 71 1048.1 0.0 N 1.6 0.0 0.0
22:24 1.8 -2.9 71 1048.1 0.0 N 1.6 0.0 0.0
22:25 1.7 -3.0 71 1048.1 0.0 N 1.6 0.0 0.0
22:26 1.7 -3.0 71 1048.1 0.0 N 0.7 0.0 0.0
22:27 1.6 -3.1 71 1048.2 0.0 N 0.0 0.0 0.0
22:28 1.6 -3.1 71 1048.2 0.0 N 0.0 0.0 0.0
22:29 1.5 -3.2 71 1048.1 0.0 N 0.0 0.0 0.0
22:30 1.5 -3.2 71 1048.3 0.0 N 0.0 0.0 0.0
22:31 1.5 -3.2 71 1048.3 0.0 N 0.0 0.0 0.0
22:33 1.4 -3.3 71 1048.3 0.0 N 0.0 0.0 0.0
22:34 1.4 -3.3 71 1048.2 0.0 N 0.0 0.0 0.0
22:35 1.4 -3.3 71 1048.2 0.0 N 0.0 0.0 0.0
22:36 1.3 -3.4 71 1048.0 0.0 N 0.0 0.0 0.0
22:37 1.3 -3.4 71 1048.2 0.0 N 0.0 0.0 0.0
22:38 1.3 -3.4 71 1048.1 0.7 N 1.6 0.0 0.0
22:39 1.3 -3.4 71 1048.1 1.6 N 1.6 0.0 0.0
22:40 1.3 -3.2 72 1048.1 1.6 N 1.6 0.0 0.0
22:41 1.3 -3.2 72 1048.1 1.6 NE 1.6 0.0 0.0
22:42 1.2 -3.3 72 1048.1 1.6 N 1.6 0.0 0.0
22:43 1.3 -3.2 72 1048.1 0.7 NE 1.6 0.0 0.0
22:44 1.2 -3.3 72 1048.1 1.6 NE 1.6 0.0 0.0
22:45 1.2 -3.3 72 1048.3 0.7 NE 1.6 0.0 0.0
22:46 1.2 -3.3 72 1048.3 0.0 NE 1.6 0.0 0.0
22:48 1.2 -3.3 72 1048.2 0.0 NE 1.6 0.0 0.0
22:49 1.2 -3.3 72 1048.2 0.0 NE 1.6 0.0 0.0
22:50 1.2 -3.3 72 1048.3 1.6 N 1.6 0.0 0.0
22:51 1.2 -3.3 72 1048.2 0.7 N 1.6 0.0 0.0
22:52 1.1 -3.4 72 1048.3 0.7 NE 1.6 0.0 0.0
22:53 1.1 -3.4 72 1048.3 1.6 N 1.6 0.0 0.0
22:54 1.1 -3.4 72 1048.2 1.6 N 1.6 0.0 0.0
22:55 1.1 -3.4 72 1048.2 1.6 NE 1.6 0.0 0.0
22:56 1.0 -3.5 72 1048.3 1.6 NE 1.6 0.0 0.0
22:57 1.0 -3.5 72 1048.3 1.6 NE 2.2 0.0 0.0
22:58 1.0 -3.5 72 1048.2 2.2 NE 2.2 0.0 0.0
22:59 0.9 -3.6 72 1048.2 2.2 NE 2.2 0.0 0.0
23:00 0.9 -3.6 72 1048.2 1.6 NE 2.2 0.0 0.0
23:02 0.9 -3.6 72 1048.4 1.6 NE 2.2 0.0 0.0
23:03 0.9 -3.6 72 1048.5 1.6 NE 2.2 0.0 0.0
23:04 0.9 -3.6 72 1048.4 1.6 NE 2.2 0.0 0.0
23:05 0.9 -3.6 72 1048.5 1.6 NE 2.2 0.0 0.0
23:06 0.9 -3.6 72 1048.4 1.6 NE 2.2 0.0 0.0
23:07 0.7 -3.8 72 1048.3 2.2 NE 2.2 0.0 0.0
23:08 0.7 -3.8 72 1048.5 1.6 NE 2.2 0.0 0.0
23:09 0.7 -3.8 72 1048.5 2.2 NE 2.2 0.0 0.0
23:10 0.7 -3.6 73 1048.5 0.7 NE 2.2 0.0 0.0
23:11 0.6 -3.7 73 1048.4 0.0 NE 2.2 0.0 0.0
23:12 0.6 -3.7 73 1048.5 0.0 NE 2.2 0.0 0.0
23:13 0.6 -3.7 73 1048.5 0.0 NE 2.2 0.0 0.0
23:14 0.6 -3.7 73 1048.4 0.0 NE 2.2 0.0 0.0
23:15 0.5 -3.8 73 1048.4 0.0 NE 2.2 0.0 0.0
23:16 0.5 -3.8 73 1048.3 0.0 N 2.2 0.0 0.0
23:18 0.5 -3.8 73 1048.4 1.6 NE 2.2 0.0 0.0
23:19 0.5 -3.8 73 1048.4 2.2 NE 2.2 0.0 0.0
23:20 0.5 -3.8 73 1048.4 2.2 NE 2.2 0.0 0.0
23:21 0.5 -3.8 73 1048.5 3.1 N 3.1 0.0 0.0
23:22 0.5 -3.8 73 1048.3 3.1 NE 3.1 0.0 0.0
23:23 0.5 -3.8 73 1048.5 3.1 N 3.1 0.0 0.0
23:24 0.5 -3.8 73 1048.3 2.2 NE 3.1 0.0 0.0
23:25 0.5 -3.8 73 1048.4 2.2 NE 3.1 0.0 0.0
23:26 0.5 -3.8 73 1048.4 1.6 NE 3.1 0.0 0.0
23:27 0.5 -3.8 73 1048.4 0.0 NE 3.1 0.0 0.0
23:28 0.5 -3.8 73 1048.4 0.0 NE 3.1 0.0 0.0
23:29 0.5 -3.8 73 1048.3 0.0 NE 3.1 0.0 0.0
23:30 0.5 -3.6 74 1048.5 0.0 NE 3.1 0.0 0.0
23:32 0.4 -3.7 74 1048.4 0.0 NE 3.1 0.0 0.0
23:33 0.4 -3.7 74 1048.4 0.0 NE 3.1 0.0 0.0
23:34 0.4 -3.7 74 1048.5 0.0 NE 2.2 0.0 0.0
23:35 0.4 -3.7 74 1048.5 0.0 NE 2.2 0.0 0.0
23:36 0.3 -3.8 74 1048.5 0.0 NE 1.6 0.0 0.0
23:37 0.3 -3.8 74 1048.4 0.0 NE 0.0 0.0 0.0
23:38 0.3 -3.8 74 1048.5 0.0 NE 0.0 0.0 0.0
23:39 0.3 -3.8 74 1048.4 0.0 NE 0.0 0.0 0.0
23:40 0.3 -3.8 74 1048.3 0.0 NE 0.0 0.0 0.0
23:41 0.3 -3.8 74 1048.5 0.0 NE 0.0 0.0 0.0
23:42 0.3 -3.8 74 1048.6 0.0 NE 0.0 0.0 0.0
23:43 0.3 -3.8 74 1048.5 0.0 N 0.0 0.0 0.0
23:44 0.3 -3.8 74 1048.4 2.2 NE 2.2 0.0 0.0
23:46 0.3 -3.8 74 1048.4 2.2 NE 3.1 0.0 0.0
23:47 0.3 -3.8 74 1048.3 3.8 NE 3.8 0.0 0.0
23:48 0.3 -3.8 74 1048.4 2.2 NNE 3.8 0.0 0.0
23:49 0.4 -3.7 74 1048.3 2.2 NE 3.8 0.0 0.0
23:50 0.4 -3.5 75 1048.4 2.2 NE 3.8 0.0 0.0
23:51 0.5 -3.4 75 1048.3 2.2 N 3.8 0.0 0.0
23:52 0.5 -3.4 75 1048.3 1.6 NE 3.8 0.0 0.0
23:53 0.6 -3.3 75 1048.5 1.6 NE 3.8 0.0 0.0
23:54 0.6 -3.3 75 1048.4 1.6 N 3.8 0.0 0.0
23:55 0.6 -3.3 75 1048.4 1.6 NE 3.8 0.0 0.0
23:56 0.6 -3.3 75 1048.2 1.6 N 3.8 0.0 0.0
23:57 0.6 -3.3 75 1048.5 2.2 N 2.2 0.0 0.0
23:58 0.6 -3.3 75 1048.4 2.2 N 2.2 0.0 0.0

 

 

UK - WEATHER STATION TOPSITES - UK World Weather Websites

Copyright © Carnkie Weather 2009 - 2020.